Wetterdaten: Samstag, 24.12.2022
Datum Zeit Temp. Aussen Temp. o. S. Temp +5cm Feuchte Auss Luftdruck Regen Sonnenschein Regendauer Solar Windben Empfang
24.12.2022 00:00 10,9 C 10,0 C 8,3 C 91 % 1006,4 hPa 0,0 l/m 0 min 0 min 0 W/m 16,1 km/h (3 Bft) 97,87 %
24.12.2022 00:02 10,9 C 10,0 C 8,3 C 91 % 1006,3 hPa 0,0 l/m 0 min 0 min 0 W/m 16,1 km/h (3 Bft) 97,22 %
24.12.2022 00:04 10,9 C 10,0 C 8,3 C 91 % 1006,4 hPa 0,0 l/m 0 min 0 min 0 W/m 16,1 km/h (3 Bft) 97,87 %
24.12.2022 00:08 10,9 C 10,6 C 8,3 C 91 % 1006,5 hPa 0,0 l/m 0 min 0 min 0 W/m 29,0 km/h (5 Bft) 96,84 %
24.12.2022 00:10 10,9 C 10,6 C 8,3 C 91 % 1006,5 hPa 0,0 l/m 0 min 0 min 0 W/m 22,5 km/h (4 Bft) 95,74 %
24.12.2022 00:12 10,9 C 10,6 C 8,3 C 90 % 1006,4 hPa 0,0 l/m 0 min 0 min 0 W/m 19,3 km/h (3 Bft) 95,74 %
24.12.2022 00:14 10,9 C 10,6 C 8,3 C 90 % 1006,6 hPa 0,0 l/m 0 min 0 min 0 W/m 29,0 km/h (5 Bft) 95,74 %
24.12.2022 00:16 10,9 C 10,6 C 8,3 C 90 % 1006,5 hPa 0,0 l/m 0 min 0 min 0 W/m 25,7 km/h (4 Bft) 93,62 %
24.12.2022 00:18 10,9 C 10,6 C 8,3 C 90 % 1006,5 hPa 0,0 l/m 0 min 0 min 0 W/m 29,0 km/h (5 Bft) 97,87 %
24.12.2022 00:20 10,9 C 10,0 C 8,3 C 90 % 1006,5 hPa 0,0 l/m 0 min 0 min 0 W/m 22,5 km/h (4 Bft) 97,87 %
24.12.2022 00:22 10,9 C 10,0 C 8,3 C 90 % 1006,6 hPa 0,0 l/m 0 min 0 min 0 W/m 25,7 km/h (4 Bft) 93,48 %
24.12.2022 00:24 10,9 C 10,0 C 7,8 C 90 % 1006,5 hPa 0,0 l/m 0 min 0 min 0 W/m 19,3 km/h (3 Bft) 93,62 %
24.12.2022 00:26 10,9 C 10,0 C 7,8 C 90 % 1006,6 hPa 0,0 l/m 0 min 0 min 0 W/m 19,3 km/h (3 Bft) 95,74 %
24.12.2022 00:28 10,9 C 10,0 C 7,8 C 90 % 1006,7 hPa 0,0 l/m 0 min 0 min 0 W/m 25,7 km/h (4 Bft) 91,49 %
24.12.2022 00:30 10,8 C 10,0 C 7,8 C 89 % 1006,5 hPa 0,0 l/m 0 min 0 min 0 W/m 29,0 km/h (5 Bft) 97,87 %
24.12.2022 00:32 10,8 C 10,0 C 7,8 C 89 % 1006,6 hPa 0,0 l/m 0 min 0 min 0 W/m 19,3 km/h (3 Bft) 95,74 %
24.12.2022 00:34 10,8 C 10,0 C 7,8 C 89 % 1006,6 hPa 0,0 l/m 0 min 0 min 0 W/m 19,3 km/h (3 Bft) 95,65 %
24.12.2022 00:36 10,8 C 10,0 C 7,8 C 89 % 1006,7 hPa 0,0 l/m 0 min 0 min 0 W/m 19,3 km/h (3 Bft) 97,87 %
24.12.2022 00:38 10,8 C 10,0 C 7,8 C 89 % 1006,7 hPa 0,0 l/m 0 min 0 min 0 W/m 22,5 km/h (4 Bft) 95,74 %
24.12.2022 00:40 10,8 C 10,0 C 7,8 C 89 % 1006,7 hPa 0,0 l/m 0 min 0 min 0 W/m 16,1 km/h (3 Bft) 95,74 %
24.12.2022 00:42 10,8 C 10,0 C 7,8 C 89 % 1006,7 hPa 0,0 l/m 0 min 0 min 0 W/m 16,1 km/h (3 Bft) 97,87 %
24.12.2022 00:44 10,7 C 10,0 C 7,8 C 89 % 1006,8 hPa 0,0 l/m 0 min 0 min 0 W/m 22,5 km/h (4 Bft) 97,87 %
24.12.2022 00:46 10,7 C 10,0 C 7,8 C 89 % 1006,9 hPa 0,0 l/m 0 min 0 min 0 W/m 16,1 km/h (3 Bft) 95,65 %
24.12.2022 00:48 10,7 C 10,0 C 7,8 C 89 % 1006,8 hPa 0,0 l/m 0 min 0 min 0 W/m 19,3 km/h (3 Bft) 97,87 %
24.12.2022 00:50 10,7 C 10,0 C 7,8 C 89 % 1006,9 hPa 0,0 l/m 0 min 0 min 0 W/m 19,3 km/h (3 Bft) 97,87 %
24.12.2022 00:52 10,7 C 10,0 C 7,8 C 89 % 1007,0 hPa 0,0 l/m 0 min 0 min 0 W/m 22,5 km/h (4 Bft) 95,74 %
24.12.2022 00:54 10,7 C 10,0 C 7,8 C 89 % 1007,0 hPa 0,0 l/m 0 min 0 min 0 W/m 22,5 km/h (4 Bft) 97,87 %
24.12.2022 00:56 10,7 C 10,0 C 7,8 C 89 % 1006,9 hPa 0,0 l/m 0 min 0 min 0 W/m 16,1 km/h (3 Bft) 97,87 %
24.12.2022 00:58 10,7 C 10,0 C 7,8 C 89 % 1007,0 hPa 0,0 l/m 0 min 0 min 0 W/m 19,3 km/h (3 Bft) 100,00 %
24.12.2022 01:00 10,7 C 10,0 C 7,8 C 89 % 1007,0 hPa 0,0 l/m 0 min 0 min 0 W/m 22,5 km/h (4 Bft) 100,00 %
24.12.2022 01:02 10,7 C 10,0 C 7,8 C 89 % 1007,1 hPa 0,0 l/m 0 min 0 min 0 W/m 19,3 km/h (3 Bft) 97,87 %
24.12.2022 01:04 10,6 C 10,0 C 7,8 C 89 % 1007,1 hPa 0,0 l/m 0 min 0 min 0 W/m 16,1 km/h (3 Bft) 100,00 %
24.12.2022 01:06 10,6 C 10,0 C 7,8 C 89 % 1007,2 hPa 0,0 l/m 0 min 0 min 0 W/m 16,1 km/h (3 Bft) 98,31 %
24.12.2022 01:08 10,6 C 10,0 C 7,8 C 89 % 1007,2 hPa 0,0 l/m 0 min 0 min 0 W/m 19,3 km/h (3 Bft) 97,14 %
24.12.2022 01:10 10,6 C 9,4 C 7,2 C 89 % 1007,1 hPa 0,0 l/m 0 min 0 min 0 W/m 16,1 km/h (3 Bft) 97,87 %
24.12.2022 01:12 10,6 C 9,4 C 7,2 C 89 % 1007,1 hPa 0,0 l/m 0 min 0 min 0 W/m 16,1 km/h (3 Bft) 100,00 %
24.12.2022 01:14 10,6 C 9,4 C 7,2 C 89 % 1007,3 hPa 0,0 l/m 0 min 0 min 0 W/m 22,5 km/h (4 Bft) 100,00 %
24.12.2022 01:16 10,5 C 9,4 C 7,2 C 89 % 1007,2 hPa 0,0 l/m 0 min 0 min 0 W/m 29,0 km/h (5 Bft) 100,00 %
24.12.2022 01:18 10,5 C 9,4 C 7,2 C 89 % 1007,2 hPa 0,0 l/m 0 min 0 min 0 W/m 25,7 km/h (4 Bft) 100,00 %
24.12.2022 01:20 10,5 C 10,0 C 7,2 C 89 % 1007,4 hPa 0,0 l/m 0 min 0 min 0 W/m 29,0 km/h (5 Bft) 100,00 %
24.12.2022 01:22 10,5 C 10,0 C 7,2 C 89 % 1007,3 hPa 0,0 l/m 0 min 0 min 0 W/m 22,5 km/h (4 Bft) 100,00 %
24.12.2022 01:24 10,5 C 9,4 C 7,2 C 89 % 1007,3 hPa 0,0 l/m 0 min 0 min 0 W/m 19,3 km/h (3 Bft) 100,00 %
24.12.2022 01:26 10,4 C 9,4 C 7,2 C 89 % 1007,3 hPa 0,0 l/m 0 min 0 min 0 W/m 12,9 km/h (3 Bft) 100,00 %
24.12.2022 01:28 10,4 C 9,4 C 7,2 C 89 % 1007,3 hPa 0,0 l/m 0 min 0 min 0 W/m 41,8 km/h (6 Bft) 100,00 %
24.12.2022 01:30 10,4 C 9,4 C 7,2 C 89 % 1007,3 hPa 0,0 l/m 0 min 0 min 0 W/m 19,3 km/h (3 Bft) 97,87 %
24.12.2022 01:32 10,3 C 9,4 C 7,2 C 89 % 1007,3 hPa 0,0 l/m 0 min 0 min 0 W/m 16,1 km/h (3 Bft) 100,00 %
24.12.2022 01:34 10,3 C 9,4 C 7,2 C 89 % 1007,3 hPa 0,0 l/m 0 min 0 min 0 W/m 25,7 km/h (4 Bft) 100,00 %
24.12.2022 01:36 10,3 C 9,4 C 7,2 C 89 % 1007,2 hPa 0,0 l/m 0 min 0 min 0 W/m 19,3 km/h (3 Bft) 100,00 %
24.12.2022 01:38 10,2 C 9,4 C 7,2 C 89 % 1007,3 hPa 0,0 l/m 0 min 0 min 0 W/m 16,1 km/h (3 Bft) 97,83 %
24.12.2022 01:40 10,2 C 9,4 C 7,2 C 89 % 1007,2 hPa 0,0 l/m 0 min 0 min 0 W/m 16,1 km/h (3 Bft) 97,87 %
24.12.2022 01:42 10,2 C 9,4 C 7,2 C 89 % 1007,3 hPa 0,0 l/m 0 min 0 min 0 W/m 12,9 km/h (3 Bft) 93,62 %
24.12.2022 01:44 10,1 C 9,4 C 7,2 C 89 % 1007,3 hPa 0,0 l/m 0 min 0 min 0 W/m 16,1 km/h (3 Bft) 97,87 %
24.12.2022 01:46 10,1 C 9,4 C 6,7 C 89 % 1007,3 hPa 0,0 l/m 0 min 0 min 0 W/m 16,1 km/h (3 Bft) 95,74 %
24.12.2022 01:48 10,1 C 9,4 C 6,7 C 90 % 1007,5 hPa 0,0 l/m 0 min 0 min 0 W/m 16,1 km/h (3 Bft) 97,87 %
24.12.2022 01:50 10,1 C 9,4 C 6,7 C 90 % 1007,4 hPa 0,0 l/m 0 min 0 min 0 W/m 16,1 km/h (3 Bft) 97,83 %
24.12.2022 01:52 10,1 C 9,4 C 6,7 C 90 % 1007,5 hPa 0,0 l/m 0 min 0 min 0 W/m 16,1 km/h (3 Bft) 97,87 %
24.12.2022 01:54 10,1 C 9,4 C 6,7 C 90 % 1007,5 hPa 0,0 l/m 0 min 0 min 0 W/m 19,3 km/h (3 Bft) 95,74 %
24.12.2022 01:56 10,1 C 9,4 C 7,2 C 90 % 1007,5 hPa 0,0 l/m 0 min 0 min 0 W/m 29,0 km/h (5 Bft) 97,87 %
24.12.2022 01:58 10,1 C 9,4 C 7,2 C 90 % 1007,6 hPa 0,0 l/m 0 min 0 min 0 W/m 16,1 km/h (3 Bft) 97,87 %
24.12.2022 02:00 10,1 C 9,4 C 7,2 C 90 % 1007,6 hPa 0,0 l/m 0 min 0 min 0 W/m 25,7 km/h (4 Bft) 95,74 %
24.12.2022 02:02 10,1 C 9,4 C 7,2 C 90 % 1007,6 hPa 0,0 l/m 0 min 0 min 0 W/m 22,5 km/h (4 Bft) 93,62 %
24.12.2022 02:04 10,1 C 9,4 C 7,2 C 91 % 1007,7 hPa 0,0 l/m 0 min 0 min 0 W/m 16,1 km/h (3 Bft) 95,65 %
24.12.2022 02:06 10,1 C 9,4 C 7,2 C 91 % 1007,7 hPa 0,0 l/m 0 min 0 min 0 W/m 19,3 km/h (3 Bft) 97,87 %
24.12.2022 02:08 10,1 C 9,4 C 7,2 C 91 % 1007,9 hPa 0,0 l/m 0 min 0 min 0 W/m 16,1 km/h (3 Bft) 95,74 %
24.12.2022 02:10 10,1 C 9,4 C 7,2 C 91 % 1008,0 hPa 0,0 l/m 0 min 0 min 0 W/m 32,2 km/h (5 Bft) 97,87 %
24.12.2022 02:14 10,2 C 9,4 C 7,2 C 91 % 1007,9 hPa 0,0 l/m 0 min 0 min 0 W/m 25,7 km/h (4 Bft) 100,00 %
24.12.2022 02:16 10,2 C 9,4 C 7,2 C 91 % 1008,0 hPa 0,0 l/m 0 min 0 min 0 W/m 16,1 km/h (3 Bft) 89,36 %
24.12.2022 02:18 10,2 C 9,4 C 7,2 C 91 % 1008,0 hPa 0,0 l/m 0 min 0 min 0 W/m 19,3 km/h (3 Bft) 97,87 %
24.12.2022 02:20 10,2 C 9,4 C 7,2 C 91 % 1008,0 hPa 0,0 l/m 0 min 0 min 0 W/m 16,1 km/h (3 Bft) 95,74 %
24.12.2022 02:22 10,2 C 9,4 C 7,2 C 91 % 1007,9 hPa 0,0 l/m 0 min 0 min 0 W/m 16,1 km/h (3 Bft) 95,74 %
24.12.2022 02:24 10,2 C 9,4 C 7,2 C 91 % 1008,0 hPa 0,0 l/m 0 min 0 min 0 W/m 19,3 km/h (3 Bft) 95,74 %
24.12.2022 02:26 10,2 C 9,4 C 7,2 C 91 % 1008,0 hPa 0,0 l/m 0 min 0 min 0 W/m 6,4 km/h (2 Bft) 97,83 %
24.12.2022 02:28 10,1 C 9,4 C 7,2 C 92 % 1008,1 hPa 0,0 l/m 0 min 0 min 0 W/m 9,7 km/h (2 Bft) 97,87 %
24.12.2022 02:30 10,1 C 9,4 C 7,2 C 92 % 1008,0 hPa 0,0 l/m 0 min 0 min 0 W/m 16,1 km/h (3 Bft) 91,49 %
24.12.2022 02:32 10,1 C 9,4 C 7,2 C 92 % 1008,0 hPa 0,0 l/m 0 min 0 min 0 W/m 12,9 km/h (3 Bft) 93,62 %
24.12.2022 02:34 10,1 C 9,4 C 7,2 C 92 % 1008,0 hPa 0,0 l/m 0 min 0 min 0 W/m 25,7 km/h (4 Bft) 95,74 %
24.12.2022 02:36 10,1 C 8,9 C 6,7 C 92 % 1008,0 hPa 0,0 l/m 0 min 0 min 0 W/m 6,4 km/h (2 Bft) 93,62 %
24.12.2022 02:38 10,0 C 8,9 C 6,7 C 92 % 1008,1 hPa 0,0 l/m 0 min 0 min 0 W/m 12,9 km/h (3 Bft) 93,62 %
24.12.2022 02:40 9,9 C 8,9 C 6,7 C 92 % 1008,0 hPa 0,0 l/m 0 min 0 min 0 W/m 12,9 km/h (3 Bft) 95,65 %
24.12.2022 02:42 9,9 C 8,9 C 6,7 C 92 % 1008,1 hPa 0,0 l/m 0 min 0 min 0 W/m 12,9 km/h (3 Bft) 95,74 %
24.12.2022 02:44 9,9 C 8,9 C 6,7 C 92 % 1008,2 hPa 0,0 l/m 0 min 0 min 0 W/m 22,5 km/h (4 Bft) 95,74 %
24.12.2022 02:46 9,8 C 8,9 C 6,7 C 92 % 1008,2 hPa 0,0 l/m 0 min 0 min 0 W/m 12,9 km/h (3 Bft) 93,62 %
24.12.2022 02:48 9,8 C 8,9 C 6,7 C 93 % 1008,1 hPa 0,0 l/m 0 min 0 min 0 W/m 22,5 km/h (4 Bft) 97,87 %
24.12.2022 02:50 9,8 C 8,9 C 6,7 C 93 % 1008,1 hPa 0,0 l/m 0 min 0 min 0 W/m 19,3 km/h (3 Bft) 95,74 %
24.12.2022 02:52 9,8 C 8,9 C 6,7 C 93 % 1008,2 hPa 0,0 l/m 0 min 0 min 0 W/m 19,3 km/h (3 Bft) 95,65 %
24.12.2022 02:54 9,7 C 8,9 C 6,7 C 93 % 1008,2 hPa 0,0 l/m 0 min 0 min 0 W/m 19,3 km/h (3 Bft) 97,87 %
24.12.2022 02:56 9,7 C 8,9 C 6,7 C 93 % 1008,1 hPa 0,0 l/m 0 min 0 min 0 W/m 12,9 km/h (3 Bft) 93,62 %
24.12.2022 02:58 9,7 C 8,9 C 6,7 C 93 % 1008,1 hPa 0,0 l/m 0 min 0 min 0 W/m 12,9 km/h (3 Bft) 97,87 %
24.12.2022 03:00 9,7 C 8,9 C 6,7 C 93 % 1008,2 hPa 0,0 l/m 0 min 0 min 0 W/m 25,7 km/h (4 Bft) 95,74 %
24.12.2022 03:02 9,7 C 8,9 C 6,7 C 93 % 1008,1 hPa 0,0 l/m 0 min 0 min 0 W/m 22,5 km/h (4 Bft) 95,74 %
24.12.2022 03:04 9,7 C 8,9 C 6,7 C 93 % 1008,1 hPa 0,0 l/m 0 min 0 min 0 W/m 22,5 km/h (4 Bft) 95,65 %
24.12.2022 03:06 9,7 C 8,9 C 6,7 C 93 % 1008,2 hPa 0,0 l/m 0 min 0 min 0 W/m 19,3 km/h (3 Bft) 98,31 %
24.12.2022 03:08 9,6 C 8,9 C 6,7 C 93 % 1008,2 hPa 0,0 l/m 0 min 0 min 0 W/m 12,9 km/h (3 Bft) 97,14 %
24.12.2022 03:10 9,6 C 8,9 C 6,7 C 93 % 1008,2 hPa 0,0 l/m 0 min 0 min 0 W/m 12,9 km/h (3 Bft) 97,87 %
24.12.2022 03:12 9,6 C 8,9 C 6,7 C 93 % 1008,2 hPa 0,0 l/m 0 min 0 min 0 W/m 12,9 km/h (3 Bft) 95,74 %
24.12.2022 03:14 9,6 C 8,9 C 6,7 C 93 % 1008,3 hPa 0,0 l/m 0 min 0 min 0 W/m 16,1 km/h (3 Bft) 97,87 %
24.12.2022 03:16 9,6 C 8,9 C 6,7 C 93 % 1008,3 hPa 0,0 l/m 0 min 0 min 0 W/m 19,3 km/h (3 Bft) 97,87 %
24.12.2022 03:18 9,6 C 8,9 C 6,7 C 93 % 1008,4 hPa 0,0 l/m 0 min 0 min 0 W/m 12,9 km/h (3 Bft) 97,83 %
24.12.2022 03:20 9,6 C 8,9 C 6,7 C 93 % 1008,5 hPa 0,0 l/m 0 min 0 min 0 W/m 16,1 km/h (3 Bft) 97,87 %
24.12.2022 03:22 9,6 C 8,9 C 6,7 C 93 % 1008,5 hPa 0,0 l/m 0 min 0 min 0 W/m 22,5 km/h (4 Bft) 100,00 %
24.12.2022 03:24 9,6 C 8,9 C 6,7 C 93 % 1008,5 hPa 0,0 l/m 0 min 0 min 0 W/m 22,5 km/h (4 Bft) 100,00 %
24.12.2022 03:26 9,6 C 8,9 C 6,7 C 93 % 1008,6 hPa 0,0 l/m 0 min 0 min 0 W/m 12,9 km/h (3 Bft) 100,00 %
24.12.2022 03:28 9,6 C 8,9 C 6,7 C 92 % 1008,5 hPa 0,0 l/m 0 min 0 min 0 W/m 12,9 km/h (3 Bft) 95,74 %
24.12.2022 03:30 9,6 C 8,9 C 6,7 C 92 % 1008,6 hPa 0,0 l/m 0 min 0 min 0 W/m 12,9 km/h (3 Bft) 100,00 %
24.12.2022 03:32 9,6 C 8,9 C 6,7 C 92 % 1008,7 hPa 0,0 l/m 0 min 0 min 0 W/m 16,1 km/h (3 Bft) 97,87 %
24.12.2022 03:34 9,6 C 8,9 C 6,7 C 93 % 1008,7 hPa 0,0 l/m 0 min 0 min 0 W/m 16,1 km/h (3 Bft) 100,00 %
24.12.2022 03:36 9,6 C 8,9 C 6,7 C 93 % 1008,7 hPa 0,0 l/m 0 min 0 min 0 W/m 12,9 km/h (3 Bft) 97,87 %
24.12.2022 03:38 9,6 C 8,9 C 6,7 C 92 % 1008,7 hPa 0,0 l/m 0 min 0 min 0 W/m 12,9 km/h (3 Bft) 97,87 %
24.12.2022 03:40 9,6 C 8,9 C 6,7 C 92 % 1008,8 hPa 0,0 l/m 0 min 0 min 0 W/m 16,1 km/h (3 Bft) 100,00 %
24.12.2022 03:42 9,6 C 8,9 C 6,7 C 92 % 1008,8 hPa 0,0 l/m 0 min 0 min 0 W/m 12,9 km/h (3 Bft) 100,00 %
24.12.2022 03:44 9,6 C 8,9 C 6,7 C 92 % 1008,8 hPa 0,0 l/m 0 min 0 min 0 W/m 9,7 km/h (2 Bft) 100,00 %
24.12.2022 03:46 9,6 C 8,9 C 6,7 C 92 % 1008,9 hPa 0,0 l/m 0 min 0 min 0 W/m 16,1 km/h (3 Bft) 100,00 %
24.12.2022 03:48 9,6 C 8,9 C 6,7 C 92 % 1008,9 hPa 0,0 l/m 0 min 0 min 0 W/m 25,7 km/h (4 Bft) 100,00 %
24.12.2022 03:50 9,6 C 8,9 C 6,7 C 92 % 1008,9 hPa 0,0 l/m 0 min 0 min 0 W/m 16,1 km/h (3 Bft) 100,00 %
24.12.2022 03:52 9,6 C 8,9 C 6,7 C 92 % 1008,9 hPa 0,0 l/m 0 min 0 min 0 W/m 12,9 km/h (3 Bft) 97,87 %
24.12.2022 03:54 9,6 C 8,9 C 6,7 C 92 % 1008,9 hPa 0,0 l/m 0 min 0 min 0 W/m 12,9 km/h (3 Bft) 97,87 %
24.12.2022 03:56 9,6 C 8,9 C 6,7 C 92 % 1008,9 hPa 0,0 l/m 0 min 0 min 0 W/m 12,9 km/h (3 Bft) 97,83 %
24.12.2022 03:58 9,6 C 8,9 C 6,7 C 92 % 1008,9 hPa 0,0 l/m 0 min 0 min 0 W/m 12,9 km/h (3 Bft) 100,00 %
24.12.2022 04:00 9,6 C 8,9 C 6,7 C 92 % 1009,0 hPa 0,0 l/m 0 min 0 min 0 W/m 12,9 km/h (3 Bft) 97,87 %
24.12.2022 04:02 9,6 C 8,9 C 6,7 C 92 % 1009,0 hPa 0,0 l/m 0 min 0 min 0 W/m 12,9 km/h (3 Bft) 97,87 %
24.12.2022 04:04 9,6 C 8,9 C 6,7 C 92 % 1009,0 hPa 0,0 l/m 0 min 0 min 0 W/m 16,1 km/h (3 Bft) 100,00 %
24.12.2022 04:06 9,6 C 8,9 C 6,7 C 92 % 1009,0 hPa 0,0 l/m 0 min 0 min 0 W/m 19,3 km/h (3 Bft) 98,28 %
24.12.2022 04:08 9,6 C 8,9 C 6,7 C 93 % 1009,0 hPa 0,0 l/m 0 min 0 min 0 W/m 16,1 km/h (3 Bft) 97,14 %
24.12.2022 04:10 9,6 C 8,9 C 6,7 C 93 % 1009,0 hPa 0,0 l/m 0 min 0 min 0 W/m 16,1 km/h (3 Bft) 100,00 %
24.12.2022 04:12 9,7 C 8,9 C 6,7 C 93 % 1009,0 hPa 0,0 l/m 0 min 0 min 0 W/m 19,3 km/h (3 Bft) 95,74 %
24.12.2022 04:14 9,7 C 9,4 C 6,7 C 93 % 1009,0 hPa 0,0 l/m 0 min 0 min 0 W/m 16,1 km/h (3 Bft) 97,87 %
24.12.2022 04:16 9,7 C 9,4 C 6,7 C 93 % 1009,0 hPa 0,0 l/m 0 min 0 min 0 W/m 6,4 km/h (2 Bft) 95,74 %
24.12.2022 04:18 9,7 C 9,4 C 6,7 C 93 % 1009,0 hPa 0,0 l/m 0 min 0 min 0 W/m 12,9 km/h (3 Bft) 95,74 %
24.12.2022 04:20 9,8 C 8,9 C 6,7 C 93 % 1009,0 hPa 0,0 l/m 0 min 0 min 0 W/m 9,7 km/h (2 Bft) 93,62 %
24.12.2022 04:22 9,8 C 8,9 C 6,7 C 93 % 1009,0 hPa 0,0 l/m 0 min 0 min 0 W/m 19,3 km/h (3 Bft) 95,65 %
24.12.2022 04:24 9,8 C 8,9 C 6,7 C 93 % 1009,0 hPa 0,0 l/m 0 min 0 min 0 W/m 16,1 km/h (3 Bft) 95,74 %
24.12.2022 04:26 9,8 C 8,9 C 6,7 C 93 % 1009,0 hPa 0,0 l/m 0 min 0 min 0 W/m 19,3 km/h (3 Bft) 95,74 %
24.12.2022 04:28 9,8 C 9,4 C 6,7 C 93 % 1009,0 hPa 0,0 l/m 0 min 0 min 0 W/m 16,1 km/h (3 Bft) 95,74 %
24.12.2022 04:30 9,8 C 9,4 C 6,7 C 93 % 1009,2 hPa 0,0 l/m 0 min 0 min 0 W/m 22,5 km/h (4 Bft) 95,74 %
24.12.2022 04:32 9,9 C 9,4 C 6,7 C 93 % 1009,2 hPa 0,0 l/m 0 min 0 min 0 W/m 12,9 km/h (3 Bft) 95,74 %
24.12.2022 04:34 9,9 C 9,4 C 6,7 C 93 % 1009,2 hPa 0,0 l/m 0 min 0 min 0 W/m 16,1 km/h (3 Bft) 95,65 %
24.12.2022 04:36 9,9 C 9,4 C 6,7 C 93 % 1009,2 hPa 0,0 l/m 0 min 0 min 0 W/m 9,7 km/h (2 Bft) 95,74 %
24.12.2022 04:38 9,9 C 9,4 C 6,7 C 93 % 1009,1 hPa 0,0 l/m 0 min 0 min 0 W/m 12,9 km/h (3 Bft) 93,62 %
24.12.2022 04:40 9,9 C 8,9 C 6,7 C 93 % 1009,2 hPa 0,0 l/m 0 min 0 min 0 W/m 12,9 km/h (3 Bft) 95,74 %
24.12.2022 04:42 9,9 C 9,4 C 6,7 C 93 % 1009,2 hPa 0,0 l/m 0 min 0 min 0 W/m 16,1 km/h (3 Bft) 95,74 %
24.12.2022 04:44 9,9 C 8,9 C 6,7 C 93 % 1009,2 hPa 0,0 l/m 0 min 0 min 0 W/m 9,7 km/h (2 Bft) 93,62 %
24.12.2022 04:46 9,9 C 8,9 C 6,7 C 93 % 1009,2 hPa 0,0 l/m 0 min 0 min 0 W/m 12,9 km/h (3 Bft) 91,49 %
24.12.2022 04:48 9,8 C 8,9 C 6,7 C 93 % 1009,2 hPa 0,0 l/m 0 min 0 min 0 W/m 6,4 km/h (2 Bft) 97,83 %
24.12.2022 04:50 9,8 C 8,9 C 6,7 C 93 % 1009,4 hPa 0,0 l/m 0 min 0 min 0 W/m 16,1 km/h (3 Bft) 95,74 %
24.12.2022 04:52 9,8 C 8,9 C 6,7 C 93 % 1009,4 hPa 0,0 l/m 0 min 0 min 0 W/m 12,9 km/h (3 Bft) 95,74 %
24.12.2022 04:54 9,8 C 8,9 C 6,7 C 93 % 1009,3 hPa 0,0 l/m 0 min 0 min 0 W/m 19,3 km/h (3 Bft) 97,87 %
24.12.2022 04:56 9,8 C 8,9 C 6,7 C 93 % 1009,3 hPa 0,0 l/m 0 min 0 min 0 W/m 16,1 km/h (3 Bft) 100,00 %
24.12.2022 04:58 9,8 C 8,9 C 6,7 C 93 % 1009,3 hPa 0,0 l/m 0 min 0 min 0 W/m 12,9 km/h (3 Bft) 97,87 %
24.12.2022 05:00 9,8 C 8,9 C 6,7 C 94 % 1009,3 hPa 0,0 l/m 0 min 0 min 0 W/m 22,5 km/h (4 Bft) 97,87 %
24.12.2022 05:02 9,8 C 8,9 C 6,7 C 94 % 1009,4 hPa 0,0 l/m 0 min 0 min 0 W/m 29,0 km/h (5 Bft) 100,00 %
24.12.2022 05:04 9,8 C 8,9 C 6,7 C 94 % 1009,4 hPa 0,0 l/m 0 min 0 min 0 W/m 22,5 km/h (4 Bft) 100,00 %
24.12.2022 05:06 9,8 C 8,9 C 6,7 C 94 % 1009,4 hPa 0,0 l/m 0 min 0 min 0 W/m 16,1 km/h (3 Bft) 97,87 %
24.12.2022 05:08 9,8 C 9,4 C 6,7 C 94 % 1009,4 hPa 0,0 l/m 0 min 0 min 0 W/m 12,9 km/h (3 Bft) 100,00 %
24.12.2022 05:10 9,8 C 8,9 C 6,7 C 94 % 1009,4 hPa 0,0 l/m 0 min 0 min 0 W/m 12,9 km/h (3 Bft) 100,00 %
24.12.2022 05:12 9,8 C 9,4 C 6,7 C 94 % 1009,4 hPa 0,0 l/m 0 min 0 min 0 W/m 19,3 km/h (3 Bft) 100,00 %
24.12.2022 05:14 9,8 C 8,9 C 6,7 C 94 % 1009,5 hPa 0,0 l/m 0 min 0 min 0 W/m 9,7 km/h (2 Bft) 100,00 %
24.12.2022 05:16 9,8 C 8,9 C 6,7 C 94 % 1009,5 hPa 0,0 l/m 0 min 0 min 0 W/m 12,9 km/h (3 Bft) 100,00 %
24.12.2022 05:18 9,8 C 8,9 C 6,7 C 94 % 1009,6 hPa 0,0 l/m 0 min 0 min 0 W/m 19,3 km/h (3 Bft) 100,00 %
24.12.2022 05:20 9,8 C 8,9 C 6,7 C 94 % 1009,5 hPa 0,0 l/m 0 min 0 min 0 W/m 12,9 km/h (3 Bft) 100,00 %
24.12.2022 05:22 9,8 C 9,4 C 6,7 C 94 % 1009,5 hPa 0,0 l/m 0 min 0 min 0 W/m 12,9 km/h (3 Bft) 100,00 %
24.12.2022 05:24 9,8 C 9,4 C 6,7 C 94 % 1009,5 hPa 0,0 l/m 0 min 0 min 0 W/m 25,7 km/h (4 Bft) 97,87 %
24.12.2022 05:26 9,8 C 9,4 C 6,7 C 94 % 1009,6 hPa 0,0 l/m 0 min 0 min 0 W/m 12,9 km/h (3 Bft) 97,83 %
24.12.2022 05:28 9,8 C 9,4 C 6,7 C 94 % 1009,6 hPa 0,0 l/m 0 min 2 min 0 W/m 19,3 km/h (3 Bft) 97,87 %
24.12.2022 05:30 9,8 C 8,9 C 6,7 C 94 % 1009,6 hPa 0,0 l/m 0 min 2 min 0 W/m 19,3 km/h (3 Bft) 95,74 %
24.12.2022 05:32 9,8 C 8,9 C 6,7 C 94 % 1009,6 hPa 0,0 l/m 0 min 2 min 0 W/m 9,7 km/h (2 Bft) 95,74 %
24.12.2022 05:34 9,8 C 8,9 C 6,7 C 94 % 1009,6 hPa 0,0 l/m 0 min 0 min 0 W/m 6,4 km/h (2 Bft) 97,87 %
24.12.2022 05:36 9,8 C 8,9 C 6,7 C 94 % 1009,7 hPa 0,0 l/m 0 min 2 min 0 W/m 25,7 km/h (4 Bft) 97,87 %
24.12.2022 05:38 9,8 C 8,9 C 6,7 C 94 % 1009,7 hPa 0,0 l/m 0 min 0 min 0 W/m 6,4 km/h (2 Bft) 93,48 %
24.12.2022 05:40 9,8 C 8,9 C 6,7 C 94 % 1009,7 hPa 0,0 l/m 0 min 0 min 0 W/m 16,1 km/h (3 Bft) 97,87 %
24.12.2022 05:42 9,8 C 8,9 C 6,7 C 94 % 1009,8 hPa 0,0 l/m 0 min 0 min 0 W/m 12,9 km/h (3 Bft) 95,74 %
24.12.2022 05:44 9,8 C 8,9 C 6,7 C 95 % 1009,7 hPa 0,0 l/m 0 min 2 min 0 W/m 19,3 km/h (3 Bft) 95,74 %
24.12.2022 05:46 9,8 C 8,9 C 6,7 C 95 % 1009,7 hPa 0,0 l/m 0 min 2 min 0 W/m 16,1 km/h (3 Bft) 97,87 %
24.12.2022 05:48 9,8 C 8,9 C 6,7 C 95 % 1009,8 hPa 0,0 l/m 0 min 0 min 0 W/m 16,1 km/h (3 Bft) 95,74 %
24.12.2022 05:50 9,8 C 8,9 C 6,7 C 95 % 1009,8 hPa 0,0 l/m 0 min 2 min 0 W/m 19,3 km/h (3 Bft) 93,62 %
24.12.2022 05:52 9,8 C 8,9 C 6,7 C 95 % 1009,9 hPa 0,0 l/m 0 min 2 min 0 W/m 9,7 km/h (2 Bft) 95,65 %
24.12.2022 05:54 9,8 C 8,9 C 6,1 C 95 % 1010,1 hPa 0,0 l/m 0 min 2 min 0 W/m 19,3 km/h (3 Bft) 97,87 %
24.12.2022 05:56 9,8 C 8,9 C 6,1 C 95 % 1009,9 hPa 0,0 l/m 0 min 0 min 0 W/m 12,9 km/h (3 Bft) 93,62 %
24.12.2022 05:58 9,8 C 8,9 C 6,1 C 95 % 1009,9 hPa 0,0 l/m 0 min 0 min 0 W/m 12,9 km/h (3 Bft) 95,74 %
24.12.2022 06:00 9,8 C 8,9 C 6,1 C 95 % 1009,9 hPa 0,0 l/m 0 min 0 min 0 W/m 12,9 km/h (3 Bft) 97,87 %
24.12.2022 06:02 9,8 C 8,9 C 6,1 C 95 % 1010,0 hPa 0,0 l/m 0 min 0 min 0 W/m 12,9 km/h (3 Bft) 93,62 %
24.12.2022 06:04 9,8 C 8,9 C 6,1 C 95 % 1009,9 hPa 0,0 l/m 0 min 0 min 0 W/m 12,9 km/h (3 Bft) 97,87 %
24.12.2022 06:08 9,7 C 8,9 C 6,1 C 95 % 1010,0 hPa 0,0 l/m 0 min 0 min 0 W/m 9,7 km/h (2 Bft) 96,77 %
24.12.2022 06:10 9,7 C 8,9 C 6,1 C 95 % 1010,0 hPa 0,0 l/m 0 min 0 min 0 W/m 16,1 km/h (3 Bft) 95,74 %
24.12.2022 06:12 9,7 C 8,9 C 6,1 C 95 % 1010,0 hPa 0,0 l/m 0 min 0 min 0 W/m 25,7 km/h (4 Bft) 95,74 %
24.12.2022 06:14 9,7 C 8,9 C 6,1 C 95 % 1010,0 hPa 0,0 l/m 0 min 0 min 0 W/m 19,3 km/h (3 Bft) 91,49 %
24.12.2022 06:16 9,7 C 8,9 C 6,1 C 95 % 1010,1 hPa 0,0 l/m 0 min 0 min 0 W/m 16,1 km/h (3 Bft) 95,74 %
24.12.2022 06:18 9,7 C 8,9 C 6,1 C 95 % 1010,1 hPa 0,0 l/m 0 min 0 min 0 W/m 12,9 km/h (3 Bft) 91,30 %
24.12.2022 06:20 9,7 C 8,9 C 6,1 C 95 % 1010,0 hPa 0,0 l/m 0 min 0 min 0 W/m 16,1 km/h (3 Bft) 93,62 %
24.12.2022 06:22 9,7 C 8,9 C 6,1 C 95 % 1010,0 hPa 0,0 l/m 0 min 0 min 0 W/m 16,1 km/h (3 Bft) 95,74 %
24.12.2022 06:24 9,7 C 8,9 C 6,1 C 95 % 1010,0 hPa 0,0 l/m 0 min 0 min 0 W/m 6,4 km/h (2 Bft) 78,05 %
24.12.2022 06:26 9,7 C 8,9 C 6,7 C 95 % 1010,1 hPa 0,0 l/m 0 min 0 min 0 W/m 12,9 km/h (3 Bft) 89,36 %
24.12.2022 06:28 9,7 C 8,9 C 6,1 C 95 % 1010,1 hPa 0,0 l/m 0 min 0 min 0 W/m 16,1 km/h (3 Bft) 70,21 %
24.12.2022 06:30 9,7 C 8,9 C 6,1 C 95 % 1010,2 hPa 0,0 l/m 0 min 0 min 0 W/m 6,4 km/h (2 Bft) 97,87 %
24.12.2022 06:32 9,8 C 8,9 C 6,1 C 95 % 1010,2 hPa 0,0 l/m 0 min 0 min 0 W/m 12,9 km/h (3 Bft) 95,74 %
24.12.2022 06:34 9,8 C 8,9 C 6,1 C 95 % 1010,1 hPa 0,0 l/m 0 min 0 min 0 W/m 12,9 km/h (3 Bft) 93,62 %
24.12.2022 06:36 9,8 C 8,9 C 6,1 C 95 % 1010,1 hPa 0,0 l/m 0 min 0 min 0 W/m 9,7 km/h (2 Bft) 93,48 %
24.12.2022 06:38 9,8 C 9,4 C 6,7 C 95 % 1010,1 hPa 0,0 l/m 0 min 0 min 0 W/m 22,5 km/h (4 Bft) 95,74 %
24.12.2022 06:40 9,8 C 9,4 C 6,7 C 95 % 1010,1 hPa 0,0 l/m 0 min 0 min 0 W/m 29,0 km/h (5 Bft) 97,87 %
24.12.2022 06:42 9,8 C 9,4 C 6,7 C 95 % 1010,2 hPa 0,0 l/m 0 min 0 min 0 W/m 16,1 km/h (3 Bft) 95,74 %
24.12.2022 06:44 9,8 C 9,4 C 6,7 C 95 % 1010,2 hPa 0,0 l/m 0 min 0 min 0 W/m 19,3 km/h (3 Bft) 95,74 %
24.12.2022 06:46 9,8 C 9,4 C 6,7 C 95 % 1010,2 hPa 0,0 l/m 0 min 0 min 0 W/m 25,7 km/h (4 Bft) 95,74 %
24.12.2022 06:48 9,8 C 9,4 C 6,7 C 95 % 1010,3 hPa 0,0 l/m 0 min 0 min 0 W/m 12,9 km/h (3 Bft) 97,83 %
24.12.2022 06:50 9,8 C 9,4 C 6,7 C 95 % 1010,2 hPa 0,0 l/m 0 min 0 min 0 W/m 9,7 km/h (2 Bft) 95,74 %
24.12.2022 06:52 9,8 C 9,4 C 6,7 C 95 % 1010,2 hPa 0,0 l/m 0 min 0 min 0 W/m 16,1 km/h (3 Bft) 95,74 %
24.12.2022 06:54 9,8 C 9,4 C 6,7 C 95 % 1010,3 hPa 0,0 l/m 0 min 0 min 0 W/m 9,7 km/h (2 Bft) 97,87 %
24.12.2022 06:56 9,8 C 9,4 C 6,7 C 95 % 1010,4 hPa 0,0 l/m 0 min 0 min 0 W/m 6,4 km/h (2 Bft) 95,74 %
24.12.2022 06:58 9,8 C 8,9 C 6,7 C 95 % 1010,4 hPa 0,0 l/m 0 min 0 min 0 W/m 12,9 km/h (3 Bft) 97,87 %
24.12.2022 07:00 9,8 C 8,9 C 6,7 C 95 % 1010,4 hPa 0,0 l/m 0 min 0 min 0 W/m 9,7 km/h (2 Bft) 97,87 %
24.12.2022 07:02 9,8 C 8,9 C 6,7 C 95 % 1010,4 hPa 0,0 l/m 0 min 0 min 0 W/m 19,3 km/h (3 Bft) 95,65 %
24.12.2022 07:04 9,8 C 8,9 C 6,7 C 95 % 1010,4 hPa 0,0 l/m 0 min 0 min 0 W/m 16,1 km/h (3 Bft) 97,87 %
24.12.2022 07:06 9,8 C 9,4 C 6,7 C 95 % 1010,5 hPa 0,0 l/m 0 min 0 min 0 W/m 16,1 km/h (3 Bft) 94,92 %
24.12.2022 07:08 9,8 C 9,4 C 6,7 C 95 % 1010,4 hPa 0,0 l/m 0 min 0 min 0 W/m 25,7 km/h (4 Bft) 94,29 %
24.12.2022 07:10 9,8 C 9,4 C 6,7 C 95 % 1010,4 hPa 0,0 l/m 0 min 0 min 0 W/m 25,7 km/h (4 Bft) 97,87 %
24.12.2022 07:12 9,8 C 9,4 C 6,7 C 95 % 1010,5 hPa 0,0 l/m 0 min 0 min 0 W/m 22,5 km/h (4 Bft) 97,87 %
24.12.2022 07:14 9,8 C 9,4 C 6,7 C 95 % 1010,4 hPa 0,0 l/m 0 min 0 min 0 W/m 16,1 km/h (3 Bft) 97,87 %
24.12.2022 07:16 9,8 C 9,4 C 6,7 C 95 % 1010,5 hPa 0,0 l/m 0 min 0 min 0 W/m 12,9 km/h (3 Bft) 97,83 %
24.12.2022 07:18 9,8 C 9,4 C 6,7 C 94 % 1010,6 hPa 0,0 l/m 0 min 0 min 0 W/m 22,5 km/h (4 Bft) 97,87 %
24.12.2022 07:20 9,8 C 9,4 C 6,7 C 94 % 1010,5 hPa 0,0 l/m 0 min 0 min 0 W/m 16,1 km/h (3 Bft) 97,87 %
24.12.2022 07:22 9,9 C 9,4 C 6,7 C 94 % 1010,6 hPa 0,0 l/m 0 min 0 min 0 W/m 9,7 km/h (2 Bft) 97,87 %
24.12.2022 07:24 9,9 C 9,4 C 6,7 C 94 % 1010,6 hPa 0,0 l/m 0 min 0 min 0 W/m 12,9 km/h (3 Bft) 97,87 %
24.12.2022 07:26 9,9 C 9,4 C 6,7 C 94 % 1010,5 hPa 0,0 l/m 0 min 0 min 0 W/m 19,3 km/h (3 Bft) 97,87 %
24.12.2022 07:28 9,9 C 9,4 C 6,7 C 94 % 1010,6 hPa 0,0 l/m 0 min 0 min 0 W/m 9,7 km/h (2 Bft) 95,65 %
24.12.2022 07:30 9,9 C 9,4 C 6,7 C 94 % 1010,6 hPa 0,0 l/m 0 min 0 min 0 W/m 16,1 km/h (3 Bft) 97,87 %
24.12.2022 07:32 9,8 C 9,4 C 6,7 C 94 % 1010,6 hPa 0,0 l/m 0 min 0 min 0 W/m 12,9 km/h (3 Bft) 97,87 %
24.12.2022 07:34 9,8 C 8,9 C 6,7 C 94 % 1010,6 hPa 0,0 l/m 0 min 0 min 0 W/m 25,7 km/h (4 Bft) 100,00 %
24.12.2022 07:36 9,8 C 8,9 C 6,7 C 94 % 1010,7 hPa 0,0 l/m 0 min 0 min 0 W/m 16,1 km/h (3 Bft) 97,87 %
24.12.2022 07:38 9,8 C 8,9 C 6,7 C 94 % 1010,6 hPa 0,0 l/m 0 min 0 min 0 W/m 19,3 km/h (3 Bft) 97,87 %
24.12.2022 07:40 9,8 C 8,9 C 6,7 C 94 % 1010,7 hPa 0,0 l/m 0 min 0 min 0 W/m 16,1 km/h (3 Bft) 100,00 %
24.12.2022 07:42 9,8 C 8,9 C 6,7 C 94 % 1010,6 hPa 0,0 l/m 0 min 0 min 0 W/m 16,1 km/h (3 Bft) 100,00 %
24.12.2022 07:44 9,8 C 8,9 C 6,7 C 94 % 1010,6 hPa 0,0 l/m 0 min 0 min 0 W/m 16,1 km/h (3 Bft) 100,00 %
24.12.2022 07:46 9,8 C 8,9 C 6,7 C 94 % 1010,6 hPa 0,0 l/m 0 min 0 min 0 W/m 19,3 km/h (3 Bft) 97,87 %
24.12.2022 07:48 9,8 C 8,9 C 6,7 C 94 % 1010,7 hPa 0,0 l/m 0 min 0 min 0 W/m 12,9 km/h (3 Bft) 100,00 %
24.12.2022 07:50 9,8 C 8,9 C 6,7 C 94 % 1010,7 hPa 0,0 l/m 0 min 0 min 0 W/m 22,5 km/h (4 Bft) 97,87 %
24.12.2022 07:52 9,7 C 8,9 C 6,7 C 94 % 1010,8 hPa 0,0 l/m 0 min 0 min 0 W/m 12,9 km/h (3 Bft) 100,00 %
24.12.2022 07:54 9,7 C 8,9 C 6,7 C 94 % 1010,8 hPa 0,0 l/m 0 min 0 min 0 W/m 12,9 km/h (3 Bft) 93,48 %
24.12.2022 07:56 9,7 C 8,9 C 6,7 C 94 % 1010,9 hPa 0,0 l/m 0 min 0 min 0 W/m 22,5 km/h (4 Bft) 97,87 %
24.12.2022 07:58 9,7 C 8,9 C 6,7 C 94 % 1010,9 hPa 0,0 l/m 0 min 0 min 0 W/m 6,4 km/h (2 Bft) 97,87 %
24.12.2022 08:00 9,7 C 8,9 C 6,7 C 94 % 1011,0 hPa 0,0 l/m 0 min 0 min 0 W/m 16,1 km/h (3 Bft) 100,00 %
24.12.2022 08:02 9,7 C 8,9 C 6,7 C 94 % 1011,0 hPa 0,0 l/m 0 min 0 min 0 W/m 16,1 km/h (3 Bft) 100,00 %
24.12.2022 08:04 9,7 C 8,9 C 6,7 C 94 % 1011,0 hPa 0,0 l/m 0 min 0 min 0 W/m 19,3 km/h (3 Bft) 97,87 %
24.12.2022 08:06 9,7 C 8,9 C 6,7 C 94 % 1011,0 hPa 0,0 l/m 0 min 0 min 0 W/m 19,3 km/h (3 Bft) 96,55 %
24.12.2022 08:08 9,7 C 8,9 C 6,7 C 94 % 1011,0 hPa 0,0 l/m 0 min 0 min 0 W/m 6,4 km/h (2 Bft) 100,00 %
24.12.2022 08:10 9,7 C 8,9 C 6,7 C 94 % 1010,9 hPa 0,0 l/m 0 min 0 min 0 W/m 12,9 km/h (3 Bft) 97,87 %
24.12.2022 08:12 9,7 C 8,9 C 6,7 C 94 % 1011,0 hPa 0,0 l/m 0 min 0 min 0 W/m 6,4 km/h (2 Bft) 97,87 %
24.12.2022 08:14 9,6 C 8,9 C 6,7 C 94 % 1010,9 hPa 0,0 l/m 0 min 0 min 0 W/m 12,9 km/h (3 Bft) 97,87 %
24.12.2022 08:16 9,6 C 8,9 C 6,7 C 94 % 1011,0 hPa 0,0 l/m 0 min 0 min 0 W/m 16,1 km/h (3 Bft) 97,87 %
24.12.2022 08:18 9,6 C 8,9 C 6,7 C 94 % 1010,9 hPa 0,0 l/m 0 min 0 min 0 W/m 9,7 km/h (2 Bft) 97,87 %
24.12.2022 08:20 9,6 C 8,9 C 6,7 C 94 % 1011,1 hPa 0,0 l/m 0 min 0 min 0 W/m 12,9 km/h (3 Bft) 97,83 %
24.12.2022 08:22 9,6 C 8,9 C 6,7 C 94 % 1011,0 hPa 0,0 l/m 0 min 0 min 0 W/m 9,7 km/h (2 Bft) 97,87 %
24.12.2022 08:24 9,6 C 8,9 C 6,7 C 94 % 1011,0 hPa 0,0 l/m 0 min 0 min 0 W/m 16,1 km/h (3 Bft) 95,74 %
24.12.2022 08:26 9,5 C 8,3 C 6,7 C 94 % 1011,0 hPa 0,0 l/m 0 min 0 min 0 W/m 12,9 km/h (3 Bft) 95,74 %
24.12.2022 08:28 9,5 C 8,3 C 6,7 C 94 % 1011,0 hPa 0,0 l/m 0 min 0 min 0 W/m 16,1 km/h (3 Bft) 93,62 %
24.12.2022 08:30 9,5 C 8,9 C 6,7 C 94 % 1011,1 hPa 0,0 l/m 0 min 0 min 0 W/m 9,7 km/h (2 Bft) 91,49 %
24.12.2022 08:32 9,5 C 8,9 C 6,7 C 94 % 1011,1 hPa 0,0 l/m 0 min 0 min 0 W/m 19,3 km/h (3 Bft) 95,65 %
24.12.2022 08:34 9,5 C 8,9 C 6,7 C 94 % 1011,0 hPa 0,0 l/m 0 min 0 min 0 W/m 22,5 km/h (4 Bft) 93,62 %
24.12.2022 08:36 9,5 C 8,9 C 6,7 C 94 % 1011,2 hPa 0,0 l/m 0 min 0 min 0 W/m 16,1 km/h (3 Bft) 97,87 %
24.12.2022 08:38 9,5 C 8,9 C 6,7 C 94 % 1011,1 hPa 0,0 l/m 0 min 0 min 0 W/m 12,9 km/h (3 Bft) 95,74 %
24.12.2022 08:40 9,5 C 8,9 C 6,7 C 94 % 1011,1 hPa 0,0 l/m 0 min 0 min 0 W/m 9,7 km/h (2 Bft) 95,74 %
24.12.2022 08:42 9,5 C 8,9 C 6,7 C 94 % 1011,1 hPa 0,0 l/m 0 min 0 min 0 W/m 19,3 km/h (3 Bft) 97,87 %
24.12.2022 08:44 9,5 C 8,9 C 6,7 C 94 % 1011,1 hPa 0,0 l/m 0 min 0 min 5 W/m 12,9 km/h (3 Bft) 97,87 %
24.12.2022 08:46 9,5 C 8,9 C 6,7 C 94 % 1011,1 hPa 0,0 l/m 0 min 0 min 5 W/m 12,9 km/h (3 Bft) 97,83 %
24.12.2022 08:48 9,5 C 8,3 C 6,7 C 94 % 1011,3 hPa 0,0 l/m 0 min 0 min 6 W/m 12,9 km/h (3 Bft) 97,87 %
24.12.2022 08:50 9,5 C 8,9 C 6,7 C 94 % 1011,3 hPa 0,0 l/m 0 min 0 min 7 W/m 12,9 km/h (3 Bft) 93,62 %
24.12.2022 08:52 9,5 C 8,9 C 6,7 C 94 % 1011,4 hPa 0,0 l/m 0 min 0 min 7 W/m 12,9 km/h (3 Bft) 97,87 %
24.12.2022 08:54 9,5 C 8,9 C 6,7 C 94 % 1011,4 hPa 0,0 l/m 0 min 0 min 8 W/m 16,1 km/h (3 Bft) 97,87 %
24.12.2022 08:56 9,5 C 8,9 C 6,7 C 94 % 1011,4 hPa 0,0 l/m 0 min 0 min 9 W/m 9,7 km/h (2 Bft) 97,87 %
24.12.2022 08:58 9,4 C 8,9 C 6,7 C 94 % 1011,4 hPa 0,0 l/m 0 min 0 min 9 W/m 25,7 km/h (4 Bft) 97,83 %
24.12.2022 09:00 9,5 C 8,9 C 6,7 C 94 % 1011,4 hPa 0,0 l/m 0 min 0 min 9 W/m 19,3 km/h (3 Bft) 91,49 %
24.12.2022 09:02 9,5 C 8,9 C 6,7 C 94 % 1011,4 hPa 0,0 l/m 0 min 0 min 11 W/m 12,9 km/h (3 Bft) 95,74 %
24.12.2022 09:04 9,5 C 8,9 C 6,7 C 94 % 1011,5 hPa 0,0 l/m 0 min 0 min 12 W/m 12,9 km/h (3 Bft) 97,87 %
24.12.2022 09:06 9,5 C 8,9 C 6,7 C 94 % 1011,5 hPa 0,0 l/m 0 min 0 min 13 W/m 19,3 km/h (3 Bft) 96,61 %
24.12.2022 09:08 9,5 C 8,9 C 6,7 C 94 % 1011,6 hPa 0,0 l/m 0 min 0 min 14 W/m 16,1 km/h (3 Bft) 97,14 %
24.12.2022 09:10 9,5 C 8,9 C 6,7 C 94 % 1011,6 hPa 0,0 l/m 0 min 0 min 15 W/m 19,3 km/h (3 Bft) 97,96 %
24.12.2022 09:12 9,5 C 8,9 C 6,7 C 94 % 1011,6 hPa 0,0 l/m 0 min 0 min 16 W/m 6,4 km/h (2 Bft) 97,87 %
24.12.2022 09:14 9,5 C 8,9 C 6,7 C 94 % 1011,7 hPa 0,0 l/m 0 min 0 min 16 W/m 6,4 km/h (2 Bft) 100,00 %
24.12.2022 09:16 9,5 C 8,9 C 6,7 C 94 % 1011,8 hPa 0,0 l/m 0 min 0 min 17 W/m 29,0 km/h (5 Bft) 97,87 %
24.12.2022 09:18 9,5 C 8,9 C 6,7 C 94 % 1011,8 hPa 0,0 l/m 0 min 0 min 18 W/m 19,3 km/h (3 Bft) 95,74 %
24.12.2022 09:20 9,5 C 8,9 C 6,7 C 94 % 1011,9 hPa 0,0 l/m 0 min 0 min 18 W/m 12,9 km/h (3 Bft) 91,49 %
24.12.2022 09:22 9,5 C 8,9 C 6,7 C 94 % 1011,9 hPa 0,0 l/m 0 min 0 min 18 W/m 9,7 km/h (2 Bft) 95,65 %
24.12.2022 09:24 9,5 C 8,9 C 6,7 C 94 % 1011,9 hPa 0,0 l/m 0 min 0 min 20 W/m 6,4 km/h (2 Bft) 95,74 %
24.12.2022 09:26 9,6 C 8,9 C 6,7 C 94 % 1011,9 hPa 0,0 l/m 0 min 0 min 21 W/m 6,4 km/h (2 Bft) 97,87 %
24.12.2022 09:28 9,6 C 8,9 C 6,7 C 94 % 1011,9 hPa 0,0 l/m 0 min 0 min 18 W/m 19,3 km/h (3 Bft) 97,87 %
24.12.2022 09:30 9,6 C 9,4 C 6,7 C 94 % 1012,0 hPa 0,0 l/m 0 min 0 min 19 W/m 12,9 km/h (3 Bft) 97,87 %
24.12.2022 09:32 9,6 C 8,9 C 6,7 C 94 % 1012,0 hPa 0,0 l/m 0 min 0 min 23 W/m 6,4 km/h (2 Bft) 97,87 %
24.12.2022 09:34 9,6 C 9,4 C 6,7 C 94 % 1012,0 hPa 0,0 l/m 0 min 0 min 24 W/m 12,9 km/h (3 Bft) 97,87 %
24.12.2022 09:36 9,6 C 9,4 C 6,7 C 94 % 1012,0 hPa 0,0 l/m 0 min 0 min 23 W/m 16,1 km/h (3 Bft) 97,83 %
24.12.2022 09:38 9,7 C 9,4 C 6,7 C 94 % 1012,1 hPa 0,0 l/m 0 min 0 min 19 W/m 12,9 km/h (3 Bft) 97,87 %
24.12.2022 09:40 9,7 C 9,4 C 6,7 C 94 % 1012,1 hPa 0,0 l/m 0 min 0 min 21 W/m 12,9 km/h (3 Bft) 97,87 %
24.12.2022 09:42 9,7 C 9,4 C 6,7 C 94 % 1012,1 hPa 0,0 l/m 0 min 0 min 18 W/m 12,9 km/h (3 Bft) 97,87 %
24.12.2022 09:44 9,7 C 9,4 C 6,7 C 94 % 1012,2 hPa 0,0 l/m 0 min 0 min 14 W/m 12,9 km/h (3 Bft) 95,74 %
24.12.2022 09:46 9,8 C 9,4 C 6,7 C 94 % 1012,1 hPa 0,0 l/m 0 min 0 min 17 W/m 9,7 km/h (2 Bft) 95,74 %
24.12.2022 09:48 9,8 C 9,4 C 6,7 C 94 % 1012,2 hPa 0,0 l/m 0 min 0 min 18 W/m 16,1 km/h (3 Bft) 97,83 %
24.12.2022 09:50 9,8 C 9,4 C 6,7 C 94 % 1012,3 hPa 0,0 l/m 0 min 0 min 18 W/m 12,9 km/h (3 Bft) 95,74 %
24.12.2022 09:52 9,8 C 9,4 C 6,7 C 94 % 1012,2 hPa 0,0 l/m 0 min 0 min 15 W/m 16,1 km/h (3 Bft) 97,87 %
24.12.2022 09:54 9,8 C 9,4 C 6,7 C 94 % 1012,3 hPa 0,0 l/m 0 min 0 min 14 W/m 16,1 km/h (3 Bft) 97,87 %
24.12.2022 09:56 9,8 C 9,4 C 6,7 C 94 % 1012,4 hPa 0,0 l/m 0 min 0 min 16 W/m 9,7 km/h (2 Bft) 97,87 %
24.12.2022 09:58 9,9 C 9,4 C 7,2 C 94 % 1012,3 hPa 0,0 l/m 0 min 0 min 22 W/m 19,3 km/h (3 Bft) 100,00 %
24.12.2022 10:00 9,9 C 9,4 C 7,2 C 94 % 1012,3 hPa 0,0 l/m 0 min 0 min 25 W/m 16,1 km/h (3 Bft) 100,00 %
24.12.2022 10:02 9,9 C 9,4 C 7,2 C 94 % 1012,3 hPa 0,0 l/m 0 min 0 min 28 W/m 16,1 km/h (3 Bft) 100,00 %
24.12.2022 10:04 9,9 C 9,4 C 7,2 C 94 % 1012,3 hPa 0,0 l/m 0 min 0 min 26 W/m 19,3 km/h (3 Bft) 100,00 %
24.12.2022 10:06 9,9 C 9,4 C 7,2 C 94 % 1012,3 hPa 0,0 l/m 0 min 0 min 26 W/m 16,1 km/h (3 Bft) 97,87 %
24.12.2022 10:08 9,9 C 9,4 C 7,2 C 94 % 1012,3 hPa 0,0 l/m 0 min 0 min 26 W/m 12,9 km/h (3 Bft) 97,87 %
24.12.2022 10:10 10,0 C 9,4 C 7,2 C 94 % 1012,4 hPa 0,0 l/m 0 min 0 min 28 W/m 29,0 km/h (5 Bft) 97,87 %
24.12.2022 10:12 10,0 C 9,4 C 7,2 C 94 % 1012,4 hPa 0,0 l/m 0 min 0 min 27 W/m 16,1 km/h (3 Bft) 97,87 %
24.12.2022 10:14 10,0 C 9,4 C 7,2 C 94 % 1012,5 hPa 0,0 l/m 0 min 0 min 29 W/m 9,7 km/h (2 Bft) 97,83 %
24.12.2022 10:16 9,9 C 9,4 C 7,2 C 93 % 1012,5 hPa 0,0 l/m 0 min 0 min 30 W/m 9,7 km/h (2 Bft) 97,87 %
24.12.2022 10:18 9,9 C 9,4 C 7,2 C 93 % 1012,5 hPa 0,0 l/m 0 min 0 min 31 W/m 16,1 km/h (3 Bft) 97,87 %
24.12.2022 10:20 9,9 C 9,4 C 6,7 C 93 % 1012,6 hPa 0,0 l/m 0 min 0 min 32 W/m 16,1 km/h (3 Bft) 95,74 %
24.12.2022 10:22 9,9 C 9,4 C 6,7 C 93 % 1012,6 hPa 0,0 l/m 0 min 0 min 33 W/m 22,5 km/h (4 Bft) 95,74 %
24.12.2022 10:24 9,9 C 9,4 C 6,7 C 93 % 1012,6 hPa 0,0 l/m 0 min 0 min 32 W/m 12,9 km/h (3 Bft) 97,87 %
24.12.2022 10:26 9,9 C 9,4 C 6,7 C 93 % 1012,7 hPa 0,0 l/m 0 min 0 min 27 W/m 12,9 km/h (3 Bft) 97,83 %
24.12.2022 10:28 9,9 C 9,4 C 6,7 C 93 % 1012,7 hPa 0,0 l/m 0 min 0 min 26 W/m 19,3 km/h (3 Bft) 97,87 %
24.12.2022 10:30 9,9 C 9,4 C 6,7 C 93 % 1012,7 hPa 0,0 l/m 0 min 0 min 22 W/m 16,1 km/h (3 Bft) 97,87 %
24.12.2022 10:32 9,9 C 9,4 C 6,7 C 93 % 1012,8 hPa 0,0 l/m 0 min 0 min 22 W/m 12,9 km/h (3 Bft) 97,87 %
24.12.2022 10:34 9,9 C 9,4 C 6,7 C 93 % 1012,8 hPa 0,0 l/m 0 min 0 min 21 W/m 16,1 km/h (3 Bft) 97,87 %
24.12.2022 10:36 9,9 C 9,4 C 6,7 C 93 % 1012,9 hPa 0,0 l/m 0 min 0 min 24 W/m 22,5 km/h (4 Bft) 97,87 %
24.12.2022 10:38 9,9 C 9,4 C 7,2 C 93 % 1012,9 hPa 0,0 l/m 0 min 0 min 34 W/m 12,9 km/h (3 Bft) 95,74 %
24.12.2022 10:40 9,9 C 9,4 C 7,2 C 93 % 1013,0 hPa 0,0 l/m 0 min 0 min 38 W/m 12,9 km/h (3 Bft) 100,00 %
24.12.2022 10:42 9,9 C 9,4 C 7,2 C 93 % 1013,0 hPa 0,0 l/m 0 min 0 min 36 W/m 6,4 km/h (2 Bft) 97,87 %
24.12.2022 10:44 9,9 C 9,4 C 7,2 C 93 % 1013,1 hPa 0,0 l/m 0 min 0 min 38 W/m 12,9 km/h (3 Bft) 100,00 %
24.12.2022 10:46 9,9 C 9,4 C 7,2 C 93 % 1013,1 hPa 0,0 l/m 0 min 0 min 34 W/m 9,7 km/h (2 Bft) 97,87 %
24.12.2022 10:48 10,0 C 9,4 C 7,2 C 93 % 1013,1 hPa 0,0 l/m 0 min 0 min 44 W/m 12,9 km/h (3 Bft) 100,00 %
24.12.2022 10:50 10,0 C 9,4 C 7,2 C 93 % 1013,1 hPa 0,0 l/m 0 min 0 min 41 W/m 6,4 km/h (2 Bft) 100,00 %
24.12.2022 10:52 10,1 C 9,4 C 7,2 C 93 % 1013,2 hPa 0,0 l/m 0 min 0 min 49 W/m 19,3 km/h (3 Bft) 100,00 %
24.12.2022 10:54 10,1 C 10,0 C 7,2 C 93 % 1013,2 hPa 0,0 l/m 0 min 0 min 49 W/m 25,7 km/h (4 Bft) 100,00 %
24.12.2022 10:56 10,1 C 10,0 C 7,2 C 93 % 1013,2 hPa 0,0 l/m 0 min 0 min 42 W/m 19,3 km/h (3 Bft) 97,87 %
24.12.2022 10:58 10,1 C 10,0 C 7,2 C 93 % 1013,2 hPa 0,0 l/m 0 min 0 min 46 W/m 19,3 km/h (3 Bft) 100,00 %
24.12.2022 11:00 10,2 C 10,0 C 7,2 C 93 % 1013,2 hPa 0,0 l/m 0 min 0 min 57 W/m 22,5 km/h (4 Bft) 100,00 %
24.12.2022 11:02 10,2 C 10,0 C 7,2 C 93 % 1013,2 hPa 0,0 l/m 0 min 0 min 65 W/m 12,9 km/h (3 Bft) 100,00 %
24.12.2022 11:04 10,2 C 10,0 C 7,2 C 93 % 1013,2 hPa 0,0 l/m 0 min 0 min 88 W/m 19,3 km/h (3 Bft) 100,00 %
24.12.2022 11:06 10,2 C 10,0 C 7,2 C 93 % 1013,3 hPa 0,0 l/m 0 min 0 min 81 W/m 9,7 km/h (2 Bft) 100,00 %
24.12.2022 11:08 10,3 C 10,0 C 7,2 C 93 % 1013,3 hPa 0,0 l/m 0 min 0 min 69 W/m 19,3 km/h (3 Bft) 97,87 %
24.12.2022 11:10 10,3 C 10,0 C 7,8 C 93 % 1013,3 hPa 0,0 l/m 0 min 0 min 89 W/m 12,9 km/h (3 Bft) 97,87 %
24.12.2022 11:12 10,3 C 10,0 C 7,8 C 93 % 1013,2 hPa 0,0 l/m 0 min 0 min 60 W/m 12,9 km/h (3 Bft) 97,87 %
24.12.2022 11:14 10,3 C 10,0 C 7,8 C 93 % 1013,3 hPa 0,0 l/m 0 min 0 min 39 W/m 19,3 km/h (3 Bft) 95,74 %
24.12.2022 11:16 10,3 C 10,0 C 7,2 C 93 % 1013,3 hPa 0,0 l/m 0 min 0 min 37 W/m 12,9 km/h (3 Bft) 97,87 %
24.12.2022 11:18 10,3 C 10,0 C 7,2 C 93 % 1013,3 hPa 0,0 l/m 0 min 0 min 31 W/m 12,9 km/h (3 Bft) 97,83 %
24.12.2022 11:20 10,4 C 10,0 C 7,2 C 93 % 1013,3 hPa 0,0 l/m 0 min 0 min 31 W/m 12,9 km/h (3 Bft) 95,74 %
24.12.2022 11:22 10,3 C 10,0 C 7,2 C 93 % 1013,3 hPa 0,0 l/m 0 min 0 min 32 W/m 12,9 km/h (3 Bft) 97,87 %
24.12.2022 11:24 10,3 C 10,0 C 7,2 C 93 % 1013,3 hPa 0,0 l/m 0 min 0 min 35 W/m 22,5 km/h (4 Bft) 95,74 %
24.12.2022 11:26 10,3 C 10,0 C 7,2 C 93 % 1013,3 hPa 0,0 l/m 0 min 0 min 37 W/m 6,4 km/h (2 Bft) 95,74 %
24.12.2022 11:28 10,3 C 10,0 C 7,2 C 93 % 1013,3 hPa 0,0 l/m 0 min 0 min 29 W/m 9,7 km/h (2 Bft) 97,87 %
24.12.2022 11:30 10,3 C 10,0 C 7,2 C 93 % 1013,3 hPa 0,0 l/m 0 min 0 min 27 W/m 16,1 km/h (3 Bft) 97,83 %
24.12.2022 11:32 10,3 C 10,0 C 7,2 C 93 % 1013,3 hPa 0,0 l/m 0 min 0 min 31 W/m 22,5 km/h (4 Bft) 97,87 %
24.12.2022 11:34 10,3 C 10,0 C 7,2 C 92 % 1013,3 hPa 0,0 l/m 0 min 0 min 37 W/m 16,1 km/h (3 Bft) 97,87 %
24.12.2022 11:36 10,3 C 10,0 C 7,2 C 92 % 1013,3 hPa 0,0 l/m 0 min 0 min 42 W/m 19,3 km/h (3 Bft) 95,74 %
24.12.2022 11:38 10,3 C 10,0 C 7,2 C 92 % 1013,3 hPa 0,0 l/m 0 min 0 min 36 W/m 16,1 km/h (3 Bft) 95,74 %
24.12.2022 11:40 10,3 C 10,0 C 7,2 C 92 % 1013,5 hPa 0,0 l/m 0 min 0 min 42 W/m 9,7 km/h (2 Bft) 95,74 %
24.12.2022 11:42 10,3 C 10,0 C 7,2 C 92 % 1013,4 hPa 0,0 l/m 0 min 0 min 58 W/m 22,5 km/h (4 Bft) 95,74 %
24.12.2022 11:44 10,3 C 10,0 C 7,2 C 92 % 1013,3 hPa 0,0 l/m 0 min 0 min 71 W/m 9,7 km/h (2 Bft) 95,65 %
24.12.2022 11:46 10,3 C 10,0 C 7,2 C 92 % 1013,3 hPa 0,0 l/m 0 min 0 min 58 W/m 9,7 km/h (2 Bft) 95,74 %
24.12.2022 11:48 10,3 C 10,0 C 7,2 C 92 % 1013,2 hPa 0,0 l/m 0 min 0 min 54 W/m 9,7 km/h (2 Bft) 97,87 %
24.12.2022 11:50 10,3 C 10,6 C 7,2 C 92 % 1013,2 hPa 0,0 l/m 0 min 0 min 83 W/m 9,7 km/h (2 Bft) 97,87 %
24.12.2022 11:52 10,3 C 10,6 C 7,2 C 92 % 1013,2 hPa 0,0 l/m 0 min 0 min 88 W/m 12,9 km/h (3 Bft) 97,87 %
24.12.2022 11:54 10,3 C 10,6 C 7,2 C 92 % 1013,2 hPa 0,0 l/m 0 min 0 min 64 W/m 12,9 km/h (3 Bft) 97,87 %
24.12.2022 11:56 10,4 C 10,6 C 7,2 C 92 % 1013,2 hPa 0,0 l/m 0 min 0 min 62 W/m 19,3 km/h (3 Bft) 95,65 %
24.12.2022 11:58 10,4 C 10,6 C 7,2 C 92 % 1013,2 hPa 0,0 l/m 0 min 0 min 64 W/m 12,9 km/h (3 Bft) 95,74 %
24.12.2022 12:00 10,4 C 10,6 C 7,2 C 92 % 1013,2 hPa 0,0 l/m 0 min 0 min 80 W/m 19,3 km/h (3 Bft) 95,74 %
24.12.2022 12:02 10,4 C 10,6 C 7,2 C 92 % 1013,2 hPa 0,0 l/m 0 min 0 min 105 W/m 22,5 km/h (4 Bft) 97,87 %
24.12.2022 12:04 10,4 C 10,6 C 7,2 C 92 % 1013,2 hPa 0,0 l/m 0 min 0 min 132 W/m 9,7 km/h (2 Bft) 95,74 %
24.12.2022 12:08 10,5 C 10,6 C 7,8 C 92 % 1013,2 hPa 0,0 l/m 0 min 0 min 122 W/m 19,3 km/h (3 Bft) 97,62 %
24.12.2022 12:10 10,6 C 10,6 C 7,8 C 92 % 1013,2 hPa 0,0 l/m 0 min 0 min 71 W/m 6,4 km/h (2 Bft) 93,62 %
24.12.2022 12:12 10,6 C 10,6 C 7,8 C 92 % 1013,2 hPa 0,0 l/m 0 min 0 min 91 W/m 9,7 km/h (2 Bft) 95,65 %
24.12.2022 12:14 10,6 C 10,6 C 7,8 C 92 % 1013,3 hPa 0,0 l/m 0 min 0 min 78 W/m 16,1 km/h (3 Bft) 93,62 %
24.12.2022 12:16 10,6 C 10,6 C 7,8 C 91 % 1013,2 hPa 0,0 l/m 0 min 0 min 82 W/m 12,9 km/h (3 Bft) 95,74 %
24.12.2022 12:18 10,6 C 10,6 C 7,8 C 92 % 1013,1 hPa 0,0 l/m 0 min 0 min 93 W/m 12,9 km/h (3 Bft) 95,74 %
24.12.2022 12:20 10,7 C 10,6 C 7,8 C 92 % 1013,1 hPa 0,0 l/m 0 min 0 min 105 W/m 12,9 km/h (3 Bft) 93,62 %
24.12.2022 12:22 10,7 C 11,1 C 7,8 C 92 % 1013,1 hPa 0,0 l/m 0 min 0 min 123 W/m 12,9 km/h (3 Bft) 95,74 %
24.12.2022 12:24 10,7 C 11,1 C 7,8 C 91 % 1013,2 hPa 0,0 l/m 0 min 0 min 104 W/m 12,9 km/h (3 Bft) 95,74 %
24.12.2022 12:26 10,8 C 11,1 C 7,8 C 91 % 1013,3 hPa 0,0 l/m 0 min 0 min 128 W/m 16,1 km/h (3 Bft) 95,65 %
24.12.2022 12:28 10,8 C 11,1 C 7,8 C 91 % 1013,2 hPa 0,0 l/m 2 min 0 min 165 W/m 12,9 km/h (3 Bft) 95,74 %
24.12.2022 12:30 10,9 C 11,1 C 8,3 C 91 % 1013,2 hPa 0,0 l/m 2 min 0 min 165 W/m 29,0 km/h (5 Bft) 95,74 %
24.12.2022 12:32 10,9 C 11,7 C 8,3 C 91 % 1013,2 hPa 0,0 l/m 2 min 0 min 169 W/m 12,9 km/h (3 Bft) 95,74 %
24.12.2022 12:34 11,0 C 11,7 C 8,3 C 91 % 1013,2 hPa 0,0 l/m 2 min 0 min 208 W/m 25,7 km/h (4 Bft) 95,74 %
24.12.2022 12:36 11,1 C 12,2 C 8,3 C 91 % 1013,3 hPa 0,0 l/m 2 min 0 min 209 W/m 12,9 km/h (3 Bft) 91,49 %
24.12.2022 12:38 11,1 C 12,2 C 8,3 C 91 % 1013,3 hPa 0,0 l/m 2 min 0 min 218 W/m 16,1 km/h (3 Bft) 95,65 %
24.12.2022 12:40 11,2 C 12,2 C 8,3 C 91 % 1013,3 hPa 0,0 l/m 0 min 0 min 129 W/m 19,3 km/h (3 Bft) 95,74 %
24.12.2022 12:42 11,2 C 11,7 C 8,3 C 90 % 1013,2 hPa 0,0 l/m 0 min 0 min 93 W/m 19,3 km/h (3 Bft) 95,74 %
24.12.2022 12:44 11,2 C 11,7 C 8,3 C 90 % 1013,3 hPa 0,0 l/m 0 min 0 min 114 W/m 12,9 km/h (3 Bft) 97,87 %
24.12.2022 12:46 11,2 C 11,7 C 8,3 C 90 % 1013,3 hPa 0,0 l/m 0 min 0 min 138 W/m 16,1 km/h (3 Bft) 100,00 %
24.12.2022 12:48 11,2 C 11,7 C 8,3 C 90 % 1013,2 hPa 0,0 l/m 0 min 0 min 124 W/m 19,3 km/h (3 Bft) 100,00 %
24.12.2022 12:50 11,2 C 11,7 C 8,3 C 90 % 1013,3 hPa 0,0 l/m 0 min 0 min 108 W/m 19,3 km/h (3 Bft) 100,00 %
24.12.2022 12:52 11,2 C 11,1 C 8,3 C 89 % 1013,2 hPa 0,0 l/m 0 min 0 min 137 W/m 29,0 km/h (5 Bft) 97,83 %
24.12.2022 12:54 11,2 C 11,7 C 8,3 C 89 % 1013,2 hPa 0,0 l/m 2 min 0 min 168 W/m 19,3 km/h (3 Bft) 100,00 %
24.12.2022 12:56 11,2 C 11,7 C 8,3 C 89 % 1013,2 hPa 0,0 l/m 0 min 0 min 132 W/m 19,3 km/h (3 Bft) 100,00 %
24.12.2022 12:58 11,2 C 11,1 C 8,3 C 89 % 1013,2 hPa 0,0 l/m 0 min 0 min 108 W/m 12,9 km/h (3 Bft) 100,00 %
24.12.2022 13:00 11,2 C 11,1 C 8,3 C 89 % 1013,2 hPa 0,0 l/m 0 min 0 min 128 W/m 22,5 km/h (4 Bft) 100,00 %
24.12.2022 13:02 11,2 C 11,1 C 8,3 C 89 % 1013,2 hPa 0,0 l/m 0 min 0 min 129 W/m 19,3 km/h (3 Bft) 100,00 %
24.12.2022 13:04 11,2 C 11,7 C 8,3 C 89 % 1013,2 hPa 0,0 l/m 2 min 0 min 184 W/m 12,9 km/h (3 Bft) 100,00 %
24.12.2022 13:06 11,3 C 12,2 C 8,3 C 89 % 1013,2 hPa 0,0 l/m 2 min 0 min 289 W/m 16,1 km/h (3 Bft) 100,00 %
24.12.2022 13:08 11,3 C 12,8 C 8,3 C 89 % 1013,2 hPa 0,0 l/m 2 min 0 min 353 W/m 16,1 km/h (3 Bft) 100,00 %
24.12.2022 13:10 11,4 C 12,8 C 8,3 C 89 % 1013,3 hPa 0,0 l/m 2 min 0 min 341 W/m 22,5 km/h (4 Bft) 100,00 %
24.12.2022 13:12 11,6 C 12,8 C 8,3 C 89 % 1013,3 hPa 0,0 l/m 2 min 0 min 335 W/m 16,1 km/h (3 Bft) 100,00 %
24.12.2022 13:14 11,6 C 13,3 C 8,3 C 89 % 1013,4 hPa 0,0 l/m 2 min 0 min 330 W/m 25,7 km/h (4 Bft) 100,00 %
24.12.2022 13:16 11,7 C 12,8 C 8,3 C 89 % 1013,3 hPa 0,0 l/m 2 min 0 min 296 W/m 16,1 km/h (3 Bft) 100,00 %
24.12.2022 13:18 11,8 C 12,8 C 8,3 C 89 % 1013,3 hPa 0,0 l/m 2 min 0 min 157 W/m 12,9 km/h (3 Bft) 100,00 %
24.12.2022 13:20 11,8 C 12,2 C 8,3 C 88 % 1013,4 hPa 0,0 l/m 2 min 0 min 163 W/m 22,5 km/h (4 Bft) 100,00 %
24.12.2022 13:22 11,7 C 12,2 C 8,3 C 88 % 1013,3 hPa 0,0 l/m 2 min 0 min 194 W/m 19,3 km/h (3 Bft) 100,00 %
24.12.2022 13:24 11,7 C 12,2 C 8,3 C 88 % 1013,4 hPa 0,0 l/m 2 min 0 min 209 W/m 12,9 km/h (3 Bft) 100,00 %
24.12.2022 13:26 11,8 C 12,2 C 8,3 C 88 % 1013,4 hPa 0,0 l/m 2 min 0 min 216 W/m 12,9 km/h (3 Bft) 100,00 %
24.12.2022 13:28 11,8 C 12,2 C 8,3 C 88 % 1013,3 hPa 0,0 l/m 2 min 0 min 209 W/m 16,1 km/h (3 Bft) 100,00 %
24.12.2022 13:30 11,8 C 12,2 C 8,3 C 87 % 1013,3 hPa 0,0 l/m 2 min 0 min 259 W/m 16,1 km/h (3 Bft) 100,00 %
24.12.2022 13:32 11,8 C 12,2 C 8,3 C 87 % 1013,4 hPa 0,0 l/m 2 min 0 min 160 W/m 16,1 km/h (3 Bft) 95,74 %
24.12.2022 13:34 11,8 C 12,2 C 8,3 C 87 % 1013,5 hPa 0,0 l/m 2 min 0 min 175 W/m 12,9 km/h (3 Bft) 100,00 %
24.12.2022 13:36 11,8 C 12,2 C 8,3 C 87 % 1013,5 hPa 0,0 l/m 2 min 0 min 249 W/m 19,3 km/h (3 Bft) 100,00 %
24.12.2022 13:38 11,8 C 12,2 C 8,3 C 87 % 1013,6 hPa 0,0 l/m 2 min 0 min 254 W/m 12,9 km/h (3 Bft) 100,00 %
24.12.2022 13:40 11,8 C 12,2 C 8,3 C 87 % 1013,6 hPa 0,0 l/m 2 min 0 min 210 W/m 19,3 km/h (3 Bft) 100,00 %
24.12.2022 13:42 11,8 C 12,2 C 8,3 C 87 % 1013,6 hPa 0,0 l/m 0 min 0 min 129 W/m 12,9 km/h (3 Bft) 97,83 %
24.12.2022 13:44 11,8 C 12,2 C 8,3 C 87 % 1013,7 hPa 0,0 l/m 2 min 0 min 198 W/m 19,3 km/h (3 Bft) 100,00 %
24.12.2022 13:46 11,8 C 12,2 C 8,3 C 87 % 1013,7 hPa 0,0 l/m 2 min 0 min 140 W/m 16,1 km/h (3 Bft) 97,87 %
24.12.2022 13:48 11,8 C 11,7 C 8,3 C 87 % 1013,7 hPa 0,0 l/m 0 min 0 min 130 W/m 16,1 km/h (3 Bft) 100,00 %
24.12.2022 13:50 11,8 C 11,7 C 8,3 C 87 % 1013,7 hPa 0,0 l/m 0 min 0 min 131 W/m 19,3 km/h (3 Bft) 100,00 %
24.12.2022 13:52 11,7 C 11,7 C 8,3 C 87 % 1013,7 hPa 0,0 l/m 2 min 0 min 145 W/m 22,5 km/h (4 Bft) 97,87 %
24.12.2022 13:54 11,7 C 11,7 C 8,3 C 87 % 1013,8 hPa 0,0 l/m 2 min 0 min 133 W/m 16,1 km/h (3 Bft) 95,65 %
24.12.2022 13:56 11,7 C 11,7 C 8,3 C 87 % 1013,8 hPa 0,0 l/m 0 min 0 min 103 W/m 12,9 km/h (3 Bft) 97,87 %
24.12.2022 13:58 11,7 C 11,7 C 8,3 C 87 % 1013,8 hPa 0,0 l/m 0 min 0 min 99 W/m 12,9 km/h (3 Bft) 97,87 %
24.12.2022 14:00 11,8 C 12,2 C 8,3 C 87 % 1013,7 hPa 0,0 l/m 2 min 0 min 188 W/m 12,9 km/h (3 Bft) 97,87 %
24.12.2022 14:02 11,8 C 12,2 C 8,3 C 87 % 1013,8 hPa 0,0 l/m 2 min 0 min 288 W/m 6,4 km/h (2 Bft) 97,87 %
24.12.2022 14:04 11,8 C 12,2 C 8,9 C 87 % 1013,9 hPa 0,0 l/m 2 min 0 min 178 W/m 16,1 km/h (3 Bft) 95,74 %
24.12.2022 14:06 11,8 C 12,2 C 8,3 C 87 % 1013,8 hPa 0,0 l/m 2 min 0 min 138 W/m 22,5 km/h (4 Bft) 98,28 %
24.12.2022 14:08 11,9 C 12,2 C 8,3 C 87 % 1013,8 hPa 0,0 l/m 2 min 0 min 163 W/m 6,4 km/h (2 Bft) 97,14 %
24.12.2022 14:10 11,9 C 12,2 C 8,3 C 87 % 1013,9 hPa 0,0 l/m 2 min 0 min 130 W/m 12,9 km/h (3 Bft) 95,74 %
24.12.2022 14:12 11,9 C 11,7 C 8,3 C 87 % 1013,8 hPa 0,0 l/m 2 min 0 min 130 W/m 6,4 km/h (2 Bft) 97,87 %
24.12.2022 14:14 11,9 C 11,7 C 8,3 C 86 % 1013,8 hPa 0,0 l/m 2 min 0 min 146 W/m 19,3 km/h (3 Bft) 97,87 %
24.12.2022 14:16 11,9 C 11,7 C 8,3 C 86 % 1013,8 hPa 0,0 l/m 2 min 0 min 132 W/m 12,9 km/h (3 Bft) 95,74 %
24.12.2022 14:18 11,8 C 11,7 C 8,3 C 86 % 1013,8 hPa 0,0 l/m 2 min 0 min 184 W/m 16,1 km/h (3 Bft) 97,87 %
24.12.2022 14:20 11,8 C 11,7 C 8,3 C 86 % 1013,9 hPa 0,0 l/m 2 min 0 min 164 W/m 12,9 km/h (3 Bft) 97,83 %
24.12.2022 14:22 11,8 C 11,7 C 8,3 C 85 % 1013,9 hPa 0,0 l/m 0 min 0 min 108 W/m 19,3 km/h (3 Bft) 93,62 %
24.12.2022 14:24 11,7 C 11,1 C 7,8 C 85 % 1013,8 hPa 0,0 l/m 0 min 0 min 84 W/m 12,9 km/h (3 Bft) 95,74 %
24.12.2022 14:26 11,7 C 11,1 C 7,8 C 85 % 1013,8 hPa 0,0 l/m 0 min 0 min 74 W/m 16,1 km/h (3 Bft) 97,87 %
24.12.2022 14:28 11,7 C 11,1 C 7,8 C 85 % 1013,8 hPa 0,0 l/m 0 min 0 min 65 W/m 9,7 km/h (2 Bft) 95,74 %
24.12.2022 14:30 11,6 C 11,1 C 7,8 C 85 % 1013,9 hPa 0,0 l/m 2 min 0 min 130 W/m 12,9 km/h (3 Bft) 95,74 %
24.12.2022 14:32 11,6 C 11,1 C 7,8 C 85 % 1013,8 hPa 0,0 l/m 0 min 0 min 106 W/m 12,9 km/h (3 Bft) 95,65 %
24.12.2022 14:34 11,5 C 11,1 C 7,8 C 85 % 1013,9 hPa 0,0 l/m 0 min 0 min 63 W/m 9,7 km/h (2 Bft) 97,87 %
24.12.2022 14:36 11,4 C 11,1 C 7,8 C 85 % 1013,8 hPa 0,0 l/m 0 min 0 min 65 W/m 16,1 km/h (3 Bft) 97,87 %
24.12.2022 14:38 11,4 C 11,1 C 7,8 C 84 % 1013,8 hPa 0,0 l/m 0 min 0 min 74 W/m 25,7 km/h (4 Bft) 93,62 %
24.12.2022 14:40 11,3 C 11,1 C 7,8 C 84 % 1013,9 hPa 0,0 l/m 2 min 0 min 108 W/m 22,5 km/h (4 Bft) 95,74 %
24.12.2022 14:42 11,3 C 11,1 C 7,8 C 83 % 1013,9 hPa 0,0 l/m 0 min 0 min 99 W/m 19,3 km/h (3 Bft) 95,74 %
24.12.2022 14:44 11,3 C 11,1 C 7,8 C 83 % 1013,9 hPa 0,0 l/m 2 min 0 min 117 W/m 12,9 km/h (3 Bft) 97,87 %
24.12.2022 14:46 11,3 C 11,1 C 7,8 C 83 % 1013,9 hPa 0,0 l/m 2 min 0 min 112 W/m 9,7 km/h (2 Bft) 97,83 %
24.12.2022 14:48 11,3 C 11,1 C 7,8 C 83 % 1014,0 hPa 0,0 l/m 2 min 0 min 111 W/m 12,9 km/h (3 Bft) 97,87 %
24.12.2022 14:50 11,4 C 11,1 C 7,8 C 83 % 1014,0 hPa 0,0 l/m 2 min 0 min 96 W/m 12,9 km/h (3 Bft) 97,87 %
24.12.2022 14:52 11,4 C 11,1 C 7,8 C 83 % 1014,0 hPa 0,0 l/m 2 min 0 min 95 W/m 12,9 km/h (3 Bft) 95,74 %
24.12.2022 14:54 11,4 C 11,1 C 7,8 C 83 % 1014,0 hPa 0,0 l/m 2 min 0 min 115 W/m 12,9 km/h (3 Bft) 95,74 %
24.12.2022 14:56 11,4 C 11,1 C 7,8 C 83 % 1014,0 hPa 0,0 l/m 2 min 0 min 100 W/m 16,1 km/h (3 Bft) 93,62 %
24.12.2022 14:58 11,4 C 10,6 C 7,8 C 83 % 1014,0 hPa 0,0 l/m 0 min 0 min 85 W/m 22,5 km/h (4 Bft) 93,48 %
24.12.2022 15:00 11,4 C 10,6 C 7,2 C 83 % 1014,0 hPa 0,0 l/m 0 min 0 min 73 W/m 16,1 km/h (3 Bft) 93,62 %
24.12.2022 15:02 11,4 C 10,6 C 7,2 C 83 % 1014,1 hPa 0,0 l/m 0 min 0 min 71 W/m 19,3 km/h (3 Bft) 95,74 %
24.12.2022 15:04 11,3 C 10,6 C 7,2 C 83 % 1014,0 hPa 0,0 l/m 0 min 0 min 74 W/m 16,1 km/h (3 Bft) 93,62 %
24.12.2022 15:06 11,3 C 10,6 C 7,2 C 83 % 1014,2 hPa 0,0 l/m 0 min 0 min 62 W/m 19,3 km/h (3 Bft) 93,22 %
24.12.2022 15:08 11,3 C 10,6 C 7,2 C 84 % 1014,1 hPa 0,0 l/m 0 min 0 min 54 W/m 16,1 km/h (3 Bft) 97,14 %
24.12.2022 15:10 11,3 C 10,6 C 7,2 C 84 % 1014,1 hPa 0,0 l/m 0 min 0 min 48 W/m 12,9 km/h (3 Bft) 95,74 %
24.12.2022 15:12 11,3 C 10,6 C 7,2 C 84 % 1014,1 hPa 0,0 l/m 0 min 0 min 64 W/m 6,4 km/h (2 Bft) 95,65 %
24.12.2022 15:14 11,3 C 10,6 C 7,2 C 84 % 1014,1 hPa 0,0 l/m 0 min 0 min 44 W/m 19,3 km/h (3 Bft) 97,87 %
24.12.2022 15:16 11,2 C 10,6 C 7,2 C 84 % 1014,1 hPa 0,0 l/m 0 min 0 min 49 W/m 6,4 km/h (2 Bft) 95,74 %
24.12.2022 15:18 11,2 C 10,6 C 7,2 C 84 % 1014,1 hPa 0,0 l/m 0 min 0 min 38 W/m 12,9 km/h (3 Bft) 97,87 %
24.12.2022 15:20 11,2 C 10,6 C 7,2 C 85 % 1014,1 hPa 0,0 l/m 0 min 0 min 36 W/m 9,7 km/h (2 Bft) 95,74 %
24.12.2022 15:22 11,1 C 10,0 C 7,2 C 85 % 1014,1 hPa 0,0 l/m 0 min 0 min 36 W/m 16,1 km/h (3 Bft) 97,87 %
24.12.2022 15:24 11,1 C 10,0 C 7,2 C 85 % 1014,2 hPa 0,0 l/m 0 min 0 min 35 W/m 6,4 km/h (2 Bft) 93,48 %
24.12.2022 15:26 11,1 C 10,0 C 7,2 C 85 % 1014,2 hPa 0,0 l/m 0 min 0 min 35 W/m 3,2 km/h (1 Bft) 97,87 %
24.12.2022 15:28 11,0 C 10,0 C 6,7 C 85 % 1014,3 hPa 0,0 l/m 0 min 0 min 32 W/m 22,5 km/h (4 Bft) 95,74 %
24.12.2022 15:30 11,0 C 10,0 C 6,7 C 85 % 1014,4 hPa 0,0 l/m 0 min 0 min 33 W/m 6,4 km/h (2 Bft) 97,87 %
24.12.2022 15:32 10,9 C 10,0 C 6,7 C 86 % 1014,4 hPa 0,0 l/m 0 min 0 min 35 W/m 0,0 km/h (0 Bft) 95,74 %
24.12.2022 15:34 10,9 C 10,0 C 6,7 C 86 % 1014,4 hPa 0,0 l/m 0 min 0 min 36 W/m 0,0 km/h (0 Bft) 97,87 %
24.12.2022 15:36 10,8 C 10,0 C 6,7 C 86 % 1014,4 hPa 0,0 l/m 0 min 0 min 35 W/m 16,1 km/h (3 Bft) 100,00 %
24.12.2022 15:38 10,8 C 10,0 C 6,7 C 86 % 1014,4 hPa 0,0 l/m 0 min 0 min 34 W/m 6,4 km/h (2 Bft) 100,00 %
24.12.2022 15:40 10,8 C 10,0 C 6,7 C 86 % 1014,4 hPa 0,0 l/m 0 min 0 min 31 W/m 0,0 km/h (0 Bft) 100,00 %
24.12.2022 15:42 10,8 C 10,0 C 6,7 C 86 % 1014,4 hPa 0,0 l/m 0 min 0 min 28 W/m 6,4 km/h (2 Bft) 100,00 %
24.12.2022 15:44 10,7 C 10,0 C 6,7 C 86 % 1014,4 hPa 0,0 l/m 0 min 0 min 26 W/m 3,2 km/h (1 Bft) 97,87 %
24.12.2022 15:46 10,7 C 9,4 C 6,7 C 87 % 1014,4 hPa 0,0 l/m 0 min 0 min 26 W/m 6,4 km/h (2 Bft) 100,00 %
24.12.2022 15:48 10,7 C 9,4 C 6,7 C 87 % 1014,4 hPa 0,0 l/m 0 min 0 min 25 W/m 0,0 km/h (0 Bft) 100,00 %
24.12.2022 15:50 10,7 C 9,4 C 6,7 C 87 % 1014,5 hPa 0,0 l/m 0 min 0 min 24 W/m 0,0 km/h (0 Bft) 97,83 %
24.12.2022 15:52 10,6 C 9,4 C 6,1 C 87 % 1014,5 hPa 0,0 l/m 0 min 0 min 24 W/m 0,0 km/h (0 Bft) 97,87 %
24.12.2022 15:54 10,6 C 9,4 C 6,1 C 87 % 1014,5 hPa 0,0 l/m 0 min 0 min 21 W/m 0,0 km/h (0 Bft) 100,00 %
24.12.2022 15:56 10,6 C 9,4 C 6,1 C 87 % 1014,5 hPa 0,0 l/m 0 min 0 min 18 W/m 6,4 km/h (2 Bft) 100,00 %
24.12.2022 15:58 10,5 C 9,4 C 6,1 C 87 % 1014,6 hPa 0,0 l/m 0 min 0 min 17 W/m 3,2 km/h (1 Bft) 100,00 %
24.12.2022 16:00 10,4 C 9,4 C 6,1 C 87 % 1014,6 hPa 0,0 l/m 0 min 0 min 15 W/m 3,2 km/h (1 Bft) 100,00 %
24.12.2022 16:02 10,4 C 9,4 C 6,1 C 88 % 1014,7 hPa 0,0 l/m 0 min 0 min 13 W/m 3,2 km/h (1 Bft) 100,00 %
24.12.2022 16:04 10,4 C 9,4 C 6,1 C 88 % 1014,8 hPa 0,0 l/m 0 min 0 min 12 W/m 3,2 km/h (1 Bft) 100,00 %
24.12.2022 16:06 10,3 C 9,4 C 6,1 C 88 % 1014,7 hPa 0,0 l/m 0 min 0 min 11 W/m 6,4 km/h (2 Bft) 98,31 %
24.12.2022 16:08 10,3 C 9,4 C 6,1 C 88 % 1014,7 hPa 0,0 l/m 0 min 0 min 10 W/m 0,0 km/h (0 Bft) 100,00 %
24.12.2022 16:10 10,3 C 8,9 C 6,1 C 88 % 1014,7 hPa 0,0 l/m 0 min 0 min 9 W/m 3,2 km/h (1 Bft) 95,74 %
24.12.2022 16:12 10,3 C 8,9 C 6,1 C 88 % 1014,8 hPa 0,0 l/m 0 min 0 min 8 W/m 0,0 km/h (0 Bft) 97,87 %
24.12.2022 16:14 10,2 C 8,9 C 6,1 C 88 % 1014,9 hPa 0,0 l/m 0 min 0 min 7 W/m 3,2 km/h (1 Bft) 100,00 %
24.12.2022 16:16 10,2 C 8,9 C 5,6 C 88 % 1014,9 hPa 0,0 l/m 0 min 0 min 7 W/m 3,2 km/h (1 Bft) 100,00 %
24.12.2022 16:18 10,2 C 8,9 C 5,6 C 88 % 1014,9 hPa 0,0 l/m 0 min 0 min 6 W/m 0,0 km/h (0 Bft) 100,00 %
24.12.2022 16:20 10,1 C 8,9 C 5,6 C 88 % 1014,9 hPa 0,0 l/m 0 min 0 min 5 W/m 3,2 km/h (1 Bft) 100,00 %
24.12.2022 16:22 10,1 C 8,3 C 5,6 C 88 % 1015,0 hPa 0,0 l/m 0 min 0 min 5 W/m 0,0 km/h (0 Bft) 100,00 %
24.12.2022 16:24 10,1 C 8,3 C 5,6 C 88 % 1014,9 hPa 0,0 l/m 0 min 0 min 4 W/m 0,0 km/h (0 Bft) 97,87 %
24.12.2022 16:26 10,0 C 8,3 C 5,6 C 88 % 1014,9 hPa 0,0 l/m 0 min 0 min 0 W/m 0,0 km/h (0 Bft) 95,74 %
24.12.2022 16:28 10,0 C 8,3 C 5,0 C 88 % 1015,0 hPa 0,0 l/m 0 min 0 min 0 W/m 0,0 km/h (0 Bft) 97,83 %
24.12.2022 16:30 9,9 C 8,3 C 5,0 C 88 % 1015,0 hPa 0,0 l/m 0 min 0 min 0 W/m 0,0 km/h (0 Bft) 97,87 %
24.12.2022 16:32 9,9 C 8,3 C 5,0 C 88 % 1015,0 hPa 0,0 l/m 0 min 0 min 0 W/m 0,0 km/h (0 Bft) 97,87 %
24.12.2022 16:34 9,9 C 8,3 C 5,0 C 89 % 1015,0 hPa 0,0 l/m 0 min 0 min 0 W/m 0,0 km/h (0 Bft) 97,87 %
24.12.2022 16:36 9,8 C 8,3 C 5,0 C 89 % 1015,0 hPa 0,0 l/m 0 min 0 min 0 W/m 0,0 km/h (0 Bft) 97,87 %
24.12.2022 16:38 9,8 C 8,3 C 5,0 C 89 % 1015,0 hPa 0,0 l/m 0 min 0 min 0 W/m 0,0 km/h (0 Bft) 97,87 %
24.12.2022 16:40 9,8 C 8,3 C 5,0 C 89 % 1015,1 hPa 0,0 l/m 0 min 0 min 0 W/m 0,0 km/h (0 Bft) 93,62 %
24.12.2022 16:42 9,7 C 7,8 C 4,4 C 89 % 1015,1 hPa 0,0 l/m 0 min 0 min 0 W/m 3,2 km/h (1 Bft) 95,65 %
24.12.2022 16:44 9,7 C 7,8 C 4,4 C 89 % 1015,1 hPa 0,0 l/m 0 min 0 min 0 W/m 0,0 km/h (0 Bft) 91,49 %
24.12.2022 16:46 9,7 C 7,8 C 4,4 C 89 % 1015,1 hPa 0,0 l/m 0 min 0 min 0 W/m 0,0 km/h (0 Bft) 95,74 %
24.12.2022 16:48 9,6 C 7,8 C 4,4 C 89 % 1015,2 hPa 0,0 l/m 0 min 0 min 0 W/m 0,0 km/h (0 Bft) 95,74 %
24.12.2022 16:50 9,6 C 7,8 C 4,4 C 89 % 1015,2 hPa 0,0 l/m 0 min 0 min 0 W/m 0,0 km/h (0 Bft) 95,74 %
24.12.2022 16:52 9,6 C 7,8 C 4,4 C 89 % 1015,3 hPa 0,0 l/m 0 min 0 min 0 W/m 0,0 km/h (0 Bft) 95,74 %
24.12.2022 16:54 9,5 C 7,8 C 4,4 C 89 % 1015,3 hPa 0,0 l/m 0 min 0 min 0 W/m 0,0 km/h (0 Bft) 93,62 %
24.12.2022 16:56 9,5 C 7,8 C 4,4 C 89 % 1015,3 hPa 0,0 l/m 0 min 0 min 0 W/m 3,2 km/h (1 Bft) 95,65 %
24.12.2022 16:58 9,4 C 7,8 C 4,4 C 90 % 1015,2 hPa 0,0 l/m 0 min 0 min 0 W/m 6,4 km/h (2 Bft) 91,49 %
24.12.2022 17:00 9,4 C 7,8 C 4,4 C 90 % 1015,3 hPa 0,0 l/m 0 min 0 min 0 W/m 3,2 km/h (1 Bft) 91,49 %
24.12.2022 17:02 9,4 C 7,8 C 4,4 C 90 % 1015,3 hPa 0,0 l/m 0 min 0 min 0 W/m 9,7 km/h (2 Bft) 93,62 %
24.12.2022 17:04 9,3 C 7,8 C 4,4 C 90 % 1015,3 hPa 0,0 l/m 0 min 0 min 0 W/m 6,4 km/h (2 Bft) 95,74 %
24.12.2022 17:06 9,3 C 7,8 C 4,4 C 90 % 1015,3 hPa 0,0 l/m 0 min 0 min 0 W/m 3,2 km/h (1 Bft) 96,55 %
24.12.2022 17:08 9,3 C 7,8 C 4,4 C 90 % 1015,3 hPa 0,0 l/m 0 min 0 min 0 W/m 3,2 km/h (1 Bft) 97,14 %
24.12.2022 17:10 9,3 C 7,8 C 4,4 C 90 % 1015,2 hPa 0,0 l/m 0 min 0 min 0 W/m 0,0 km/h (0 Bft) 91,49 %
24.12.2022 17:12 9,3 C 7,8 C 4,4 C 91 % 1015,2 hPa 0,0 l/m 0 min 0 min 0 W/m 0,0 km/h (0 Bft) 95,74 %
24.12.2022 17:14 9,2 C 7,8 C 4,4 C 90 % 1015,2 hPa 0,0 l/m 0 min 0 min 0 W/m 0,0 km/h (0 Bft) 93,62 %
24.12.2022 17:16 9,2 C 7,8 C 4,4 C 90 % 1015,2 hPa 0,0 l/m 0 min 0 min 0 W/m 0,0 km/h (0 Bft) 55,56 %
24.12.2022 17:18 9,2 C 7,2 C 4,4 C 91 % 1015,2 hPa 0,0 l/m 0 min 0 min 0 W/m 0,0 km/h (0 Bft) 93,33 %
24.12.2022 17:20 9,2 C 7,2 C 3,9 C 91 % 1015,2 hPa 0,0 l/m 0 min 0 min 0 W/m 0,0 km/h (0 Bft) 95,74 %
24.12.2022 17:22 9,1 C 7,2 C 3,9 C 91 % 1015,2 hPa 0,0 l/m 0 min 0 min 0 W/m 0,0 km/h (0 Bft) 95,65 %
24.12.2022 17:24 9,1 C 7,2 C 3,9 C 91 % 1015,2 hPa 0,0 l/m 0 min 0 min 0 W/m 0,0 km/h (0 Bft) 97,87 %
24.12.2022 17:26 9,1 C 7,2 C 3,9 C 91 % 1015,2 hPa 0,0 l/m 0 min 0 min 0 W/m 0,0 km/h (0 Bft) 97,87 %
24.12.2022 17:28 9,0 C 7,2 C 3,9 C 91 % 1015,2 hPa 0,0 l/m 0 min 0 min 0 W/m 0,0 km/h (0 Bft) 97,87 %
24.12.2022 17:30 8,9 C 7,2 C 3,9 C 91 % 1015,2 hPa 0,0 l/m 0 min 0 min 0 W/m 0,0 km/h (0 Bft) 97,87 %
24.12.2022 17:32 8,9 C 7,2 C 3,9 C 91 % 1015,2 hPa 0,0 l/m 0 min 0 min 0 W/m 0,0 km/h (0 Bft) 95,74 %
24.12.2022 17:34 8,9 C 6,7 C 3,3 C 91 % 1015,1 hPa 0,0 l/m 0 min 0 min 0 W/m 0,0 km/h (0 Bft) 95,65 %
24.12.2022 17:36 8,8 C 6,7 C 3,3 C 91 % 1015,2 hPa 0,0 l/m 0 min 0 min 0 W/m 0,0 km/h (0 Bft) 97,87 %
24.12.2022 17:38 8,8 C 7,2 C 3,3 C 91 % 1015,1 hPa 0,0 l/m 0 min 0 min 0 W/m 0,0 km/h (0 Bft) 97,87 %
24.12.2022 17:40 8,8 C 7,2 C 3,9 C 91 % 1015,1 hPa 0,0 l/m 0 min 0 min 0 W/m 0,0 km/h (0 Bft) 97,87 %
24.12.2022 17:42 8,7 C 7,2 C 3,9 C 91 % 1015,2 hPa 0,0 l/m 0 min 0 min 0 W/m 0,0 km/h (0 Bft) 95,74 %
24.12.2022 17:44 8,7 C 7,2 C 3,9 C 91 % 1015,2 hPa 0,0 l/m 0 min 0 min 0 W/m 0,0 km/h (0 Bft) 100,00 %
24.12.2022 17:46 8,7 C 7,2 C 3,9 C 91 % 1015,2 hPa 0,0 l/m 0 min 0 min 0 W/m 0,0 km/h (0 Bft) 96,23 %
24.12.2022 17:48 8,6 C 7,2 C 3,9 C 91 % 1015,2 hPa 0,0 l/m 0 min 0 min 0 W/m 0,0 km/h (0 Bft) 98,00 %
24.12.2022 17:50 8,6 C 7,2 C 3,9 C 92 % 1015,2 hPa 0,0 l/m 0 min 0 min 0 W/m 0,0 km/h (0 Bft) 100,00 %
24.12.2022 17:52 8,6 C 7,2 C 3,9 C 92 % 1015,3 hPa 0,0 l/m 0 min 0 min 0 W/m 0,0 km/h (0 Bft) 100,00 %
24.12.2022 17:54 8,6 C 7,2 C 3,9 C 92 % 1015,3 hPa 0,0 l/m 0 min 0 min 0 W/m 0,0 km/h (0 Bft) 100,00 %
24.12.2022 17:56 8,5 C 7,2 C 3,9 C 92 % 1015,4 hPa 0,0 l/m 0 min 0 min 0 W/m 0,0 km/h (0 Bft) 100,00 %
24.12.2022 17:58 8,5 C 7,2 C 3,9 C 92 % 1015,5 hPa 0,0 l/m 0 min 0 min 0 W/m 3,2 km/h (1 Bft) 95,65 %
24.12.2022 18:00 8,5 C 7,2 C 3,9 C 92 % 1015,6 hPa 0,0 l/m 0 min 0 min 0 W/m 3,2 km/h (1 Bft) 95,74 %
24.12.2022 18:02 8,5 C 7,2 C 3,9 C 92 % 1015,5 hPa 0,0 l/m 0 min 0 min 0 W/m 6,4 km/h (2 Bft) 91,49 %
24.12.2022 18:04 8,5 C 7,2 C 3,9 C 92 % 1015,6 hPa 0,0 l/m 0 min 0 min 0 W/m 3,2 km/h (1 Bft) 100,00 %
24.12.2022 18:08 8,4 C 7,2 C 3,9 C 93 % 1015,5 hPa 0,0 l/m 0 min 0 min 0 W/m 3,2 km/h (1 Bft) 98,94 %
24.12.2022 18:10 8,4 C 7,2 C 3,9 C 93 % 1015,5 hPa 0,0 l/m 0 min 0 min 0 W/m 0,0 km/h (0 Bft) 100,00 %
24.12.2022 18:12 8,4 C 7,2 C 3,9 C 93 % 1015,5 hPa 0,0 l/m 0 min 0 min 0 W/m 0,0 km/h (0 Bft) 100,00 %
24.12.2022 18:14 8,4 C 7,2 C 3,9 C 93 % 1015,5 hPa 0,0 l/m 0 min 0 min 0 W/m 0,0 km/h (0 Bft) 97,87 %
24.12.2022 18:16 8,4 C 7,2 C 3,9 C 93 % 1015,5 hPa 0,0 l/m 0 min 0 min 0 W/m 0,0 km/h (0 Bft) 89,36 %
24.12.2022 18:18 8,4 C 7,2 C 3,9 C 93 % 1015,5 hPa 0,0 l/m 0 min 0 min 0 W/m 3,2 km/h (1 Bft) 95,74 %
24.12.2022 18:20 8,4 C 7,2 C 4,4 C 93 % 1015,5 hPa 0,0 l/m 0 min 0 min 0 W/m 6,4 km/h (2 Bft) 95,74 %
24.12.2022 18:22 8,4 C 7,2 C 4,4 C 93 % 1015,5 hPa 0,0 l/m 0 min 0 min 0 W/m 3,2 km/h (1 Bft) 97,87 %
24.12.2022 18:24 8,4 C 7,2 C 4,4 C 94 % 1015,5 hPa 0,0 l/m 0 min 0 min 0 W/m 3,2 km/h (1 Bft) 100,00 %
24.12.2022 18:26 8,4 C 7,2 C 4,4 C 94 % 1015,4 hPa 0,0 l/m 0 min 0 min 0 W/m 3,2 km/h (1 Bft) 97,87 %
24.12.2022 18:28 8,4 C 7,2 C 4,4 C 94 % 1015,4 hPa 0,0 l/m 0 min 0 min 0 W/m 6,4 km/h (2 Bft) 95,74 %
24.12.2022 18:30 8,4 C 7,2 C 4,4 C 94 % 1015,4 hPa 0,0 l/m 0 min 0 min 0 W/m 9,7 km/h (2 Bft) 95,74 %
24.12.2022 18:32 8,4 C 7,8 C 4,4 C 94 % 1015,4 hPa 0,0 l/m 0 min 0 min 0 W/m 16,1 km/h (3 Bft) 96,23 %
24.12.2022 18:34 8,4 C 7,2 C 4,4 C 94 % 1015,4 hPa 0,0 l/m 0 min 0 min 0 W/m 6,4 km/h (2 Bft) 95,65 %
24.12.2022 18:36 8,4 C 7,8 C 4,4 C 94 % 1015,5 hPa 0,0 l/m 0 min 0 min 0 W/m 6,4 km/h (2 Bft) 95,74 %
24.12.2022 18:38 8,4 C 7,2 C 4,4 C 94 % 1015,4 hPa 0,0 l/m 0 min 0 min 0 W/m 6,4 km/h (2 Bft) 97,56 %
24.12.2022 18:40 8,4 C 7,2 C 4,4 C 94 % 1015,5 hPa 0,0 l/m 0 min 0 min 0 W/m 3,2 km/h (1 Bft) 95,74 %
24.12.2022 18:42 8,4 C 7,2 C 4,4 C 94 % 1015,5 hPa 0,0 l/m 0 min 0 min 0 W/m 3,2 km/h (1 Bft) 95,74 %
24.12.2022 18:44 8,4 C 7,2 C 4,4 C 94 % 1015,5 hPa 0,0 l/m 0 min 0 min 0 W/m 0,0 km/h (0 Bft) 97,87 %
24.12.2022 18:46 8,4 C 7,2 C 4,4 C 94 % 1015,4 hPa 0,0 l/m 0 min 0 min 0 W/m 0,0 km/h (0 Bft) 97,87 %
24.12.2022 18:48 8,4 C 7,2 C 4,4 C 94 % 1015,4 hPa 0,0 l/m 0 min 0 min 0 W/m 0,0 km/h (0 Bft) 97,83 %
24.12.2022 18:50 8,3 C 7,2 C 3,9 C 94 % 1015,4 hPa 0,0 l/m 0 min 0 min 0 W/m 0,0 km/h (0 Bft) 97,87 %
24.12.2022 18:52 8,3 C 7,2 C 3,9 C 94 % 1015,4 hPa 0,0 l/m 0 min 0 min 0 W/m 0,0 km/h (0 Bft) 97,87 %
24.12.2022 18:54 8,3 C 7,2 C 3,9 C 94 % 1015,5 hPa 0,0 l/m 0 min 0 min 0 W/m 0,0 km/h (0 Bft) 87,23 %
24.12.2022 18:56 8,3 C 6,7 C 3,9 C 94 % 1015,5 hPa 0,0 l/m 0 min 0 min 0 W/m 0,0 km/h (0 Bft) 85,11 %
24.12.2022 18:58 8,3 C 6,7 C 3,9 C 94 % 1015,6 hPa 0,0 l/m 0 min 0 min 0 W/m 0,0 km/h (0 Bft) 80,85 %
24.12.2022 19:00 8,2 C 6,7 C 3,9 C 94 % 1015,6 hPa 0,0 l/m 0 min 0 min 0 W/m 0,0 km/h (0 Bft) 91,49 %
24.12.2022 19:02 8,2 C 6,7 C 3,3 C 94 % 1015,6 hPa 0,0 l/m 0 min 0 min 0 W/m 0,0 km/h (0 Bft) 95,65 %
24.12.2022 19:04 8,2 C 6,7 C 3,3 C 94 % 1015,7 hPa 0,0 l/m 0 min 0 min 0 W/m 0,0 km/h (0 Bft) 100,00 %
24.12.2022 19:06 8,1 C 6,7 C 3,3 C 94 % 1015,8 hPa 0,0 l/m 0 min 0 min 0 W/m 0,0 km/h (0 Bft) 100,00 %
24.12.2022 19:08 8,1 C 6,7 C 3,3 C 94 % 1015,8 hPa 0,0 l/m 0 min 0 min 0 W/m 0,0 km/h (0 Bft) 97,87 %
24.12.2022 19:10 8,1 C 6,7 C 3,3 C 94 % 1015,8 hPa 0,0 l/m 0 min 0 min 0 W/m 0,0 km/h (0 Bft) 100,00 %
24.12.2022 19:12 8,0 C 6,7 C 3,3 C 94 % 1015,8 hPa 0,0 l/m 0 min 0 min 0 W/m 0,0 km/h (0 Bft) 100,00 %
24.12.2022 19:14 8,0 C 6,7 C 3,3 C 94 % 1015,7 hPa 0,0 l/m 0 min 0 min 0 W/m 3,2 km/h (1 Bft) 100,00 %
24.12.2022 19:16 7,9 C 6,7 C 3,3 C 94 % 1015,6 hPa 0,0 l/m 0 min 0 min 0 W/m 0,0 km/h (0 Bft) 97,87 %
24.12.2022 19:18 7,9 C 6,7 C 3,3 C 94 % 1015,6 hPa 0,0 l/m 0 min 0 min 0 W/m 0,0 km/h (0 Bft) 95,74 %
24.12.2022 19:20 7,9 C 6,7 C 3,9 C 94 % 1015,5 hPa 0,0 l/m 0 min 0 min 0 W/m 0,0 km/h (0 Bft) 95,74 %
24.12.2022 19:22 7,9 C 6,7 C 3,9 C 94 % 1015,5 hPa 0,0 l/m 0 min 0 min 0 W/m 0,0 km/h (0 Bft) 95,74 %
24.12.2022 19:24 7,9 C 6,7 C 3,9 C 94 % 1015,5 hPa 0,0 l/m 0 min 0 min 0 W/m 3,2 km/h (1 Bft) 97,87 %
24.12.2022 19:26 7,9 C 6,7 C 3,9 C 94 % 1015,5 hPa 0,0 l/m 0 min 0 min 0 W/m 3,2 km/h (1 Bft) 97,83 %
24.12.2022 19:28 7,9 C 6,7 C 3,9 C 94 % 1015,4 hPa 0,0 l/m 0 min 0 min 0 W/m 3,2 km/h (1 Bft) 97,87 %
24.12.2022 19:30 7,9 C 6,7 C 4,4 C 94 % 1015,5 hPa 0,0 l/m 0 min 0 min 0 W/m 3,2 km/h (1 Bft) 97,87 %
24.12.2022 19:32 7,9 C 6,7 C 4,4 C 95 % 1015,5 hPa 0,0 l/m 0 min 0 min 0 W/m 3,2 km/h (1 Bft) 93,62 %
24.12.2022 19:34 7,9 C 6,7 C 4,4 C 95 % 1015,5 hPa 0,0 l/m 0 min 0 min 0 W/m 3,2 km/h (1 Bft) 95,74 %
24.12.2022 19:36 7,9 C 6,7 C 4,4 C 94 % 1015,5 hPa 0,0 l/m 0 min 0 min 0 W/m 3,2 km/h (1 Bft) 95,74 %
24.12.2022 19:38 7,9 C 6,7 C 4,4 C 94 % 1015,5 hPa 0,0 l/m 0 min 0 min 0 W/m 0,0 km/h (0 Bft) 93,48 %
24.12.2022 19:40 7,8 C 6,7 C 4,4 C 94 % 1015,6 hPa 0,0 l/m 0 min 0 min 0 W/m 0,0 km/h (0 Bft) 93,62 %
24.12.2022 19:42 7,8 C 6,7 C 4,4 C 95 % 1015,6 hPa 0,0 l/m 0 min 0 min 0 W/m 0,0 km/h (0 Bft) 93,62 %
24.12.2022 19:44 7,8 C 7,2 C 4,4 C 95 % 1015,6 hPa 0,0 l/m 0 min 0 min 0 W/m 0,0 km/h (0 Bft) 97,87 %
24.12.2022 19:46 7,8 C 7,2 C 4,4 C 95 % 1015,7 hPa 0,0 l/m 0 min 0 min 0 W/m 6,4 km/h (2 Bft) 95,74 %
24.12.2022 19:48 7,8 C 7,2 C 4,4 C 95 % 1015,7 hPa 0,0 l/m 0 min 0 min 0 W/m 3,2 km/h (1 Bft) 91,49 %
24.12.2022 19:50 7,8 C 7,2 C 4,4 C 95 % 1015,7 hPa 0,0 l/m 0 min 0 min 0 W/m 3,2 km/h (1 Bft) 95,74 %
24.12.2022 19:52 7,8 C 7,2 C 4,4 C 95 % 1015,7 hPa 0,0 l/m 0 min 0 min 0 W/m 3,2 km/h (1 Bft) 97,83 %
24.12.2022 19:54 7,8 C 7,2 C 4,4 C 95 % 1015,8 hPa 0,0 l/m 0 min 0 min 0 W/m 6,4 km/h (2 Bft) 97,87 %
24.12.2022 19:56 7,8 C 6,7 C 4,4 C 95 % 1015,7 hPa 0,0 l/m 0 min 0 min 0 W/m 6,4 km/h (2 Bft) 95,74 %
24.12.2022 19:58 7,8 C 7,2 C 4,4 C 95 % 1015,6 hPa 0,0 l/m 0 min 0 min 0 W/m 6,4 km/h (2 Bft) 97,87 %
24.12.2022 20:00 7,8 C 7,2 C 4,4 C 95 % 1015,6 hPa 0,0 l/m 0 min 0 min 0 W/m 6,4 km/h (2 Bft) 97,87 %
24.12.2022 20:02 7,8 C 7,2 C 4,4 C 95 % 1015,6 hPa 0,0 l/m 0 min 0 min 0 W/m 6,4 km/h (2 Bft) 95,74 %
24.12.2022 20:04 7,8 C 7,2 C 4,4 C 95 % 1015,6 hPa 0,0 l/m 0 min 0 min 0 W/m 3,2 km/h (1 Bft) 97,83 %
24.12.2022 20:06 7,8 C 7,2 C 4,4 C 95 % 1015,6 hPa 0,0 l/m 0 min 0 min 0 W/m 3,2 km/h (1 Bft) 97,87 %
24.12.2022 20:08 7,8 C 7,2 C 4,4 C 95 % 1015,6 hPa 0,0 l/m 0 min 0 min 0 W/m 3,2 km/h (1 Bft) 97,87 %
24.12.2022 20:10 7,8 C 7,2 C 4,4 C 95 % 1015,6 hPa 0,0 l/m 0 min 0 min 0 W/m 6,4 km/h (2 Bft) 95,74 %
24.12.2022 20:12 7,8 C 7,2 C 4,4 C 95 % 1015,6 hPa 0,0 l/m 0 min 0 min 0 W/m 6,4 km/h (2 Bft) 97,87 %
24.12.2022 20:14 7,8 C 7,2 C 4,4 C 95 % 1015,6 hPa 0,0 l/m 0 min 0 min 0 W/m 3,2 km/h (1 Bft) 97,87 %
24.12.2022 20:16 7,8 C 7,2 C 4,4 C 95 % 1015,6 hPa 0,0 l/m 0 min 0 min 0 W/m 6,4 km/h (2 Bft) 97,83 %
24.12.2022 20:18 7,8 C 7,2 C 5,0 C 95 % 1015,6 hPa 0,0 l/m 0 min 0 min 0 W/m 6,4 km/h (2 Bft) 95,74 %
24.12.2022 20:20 7,8 C 7,2 C 5,0 C 95 % 1015,6 hPa 0,0 l/m 0 min 0 min 0 W/m 3,2 km/h (1 Bft) 95,74 %
24.12.2022 20:22 7,8 C 7,2 C 5,0 C 96 % 1015,7 hPa 0,0 l/m 0 min 0 min 0 W/m 0,0 km/h (0 Bft) 93,62 %
24.12.2022 20:24 7,8 C 7,2 C 5,0 C 96 % 1015,7 hPa 0,0 l/m 0 min 0 min 0 W/m 3,2 km/h (1 Bft) 97,87 %
24.12.2022 20:26 7,8 C 7,2 C 5,0 C 96 % 1015,7 hPa 0,0 l/m 0 min 0 min 0 W/m 3,2 km/h (1 Bft) 97,87 %
24.12.2022 20:28 7,9 C 7,2 C 5,0 C 96 % 1015,7 hPa 0,0 l/m 0 min 0 min 0 W/m 3,2 km/h (1 Bft) 97,87 %
24.12.2022 20:30 7,9 C 7,2 C 5,0 C 96 % 1015,7 hPa 0,0 l/m 0 min 0 min 0 W/m 3,2 km/h (1 Bft) 95,65 %
24.12.2022 20:32 7,9 C 7,2 C 5,0 C 96 % 1015,8 hPa 0,0 l/m 0 min 0 min 0 W/m 3,2 km/h (1 Bft) 97,87 %
24.12.2022 20:34 7,9 C 7,2 C 5,0 C 96 % 1015,8 hPa 0,0 l/m 0 min 0 min 0 W/m 3,2 km/h (1 Bft) 95,74 %
24.12.2022 20:36 7,9 C 7,2 C 5,0 C 96 % 1015,8 hPa 0,0 l/m 0 min 0 min 0 W/m 6,4 km/h (2 Bft) 97,87 %
24.12.2022 20:38 7,9 C 7,2 C 5,0 C 96 % 1015,8 hPa 0,0 l/m 0 min 0 min 0 W/m 3,2 km/h (1 Bft) 97,87 %
24.12.2022 20:40 7,9 C 7,2 C 5,0 C 96 % 1015,8 hPa 0,0 l/m 0 min 0 min 0 W/m 0,0 km/h (0 Bft) 93,62 %
24.12.2022 20:42 7,9 C 7,2 C 5,0 C 96 % 1015,9 hPa 0,0 l/m 0 min 0 min 0 W/m 0,0 km/h (0 Bft) 97,83 %
24.12.2022 20:44 7,9 C 7,2 C 5,0 C 96 % 1015,9 hPa 0,0 l/m 0 min 0 min 0 W/m 0,0 km/h (0 Bft) 97,87 %
24.12.2022 20:46 7,9 C 7,2 C 5,0 C 96 % 1015,8 hPa 0,0 l/m 0 min 0 min 0 W/m 0,0 km/h (0 Bft) 97,87 %
24.12.2022 20:48 8,0 C 7,2 C 5,0 C 96 % 1015,7 hPa 0,0 l/m 0 min 0 min 0 W/m 0,0 km/h (0 Bft) 95,74 %
24.12.2022 20:50 8,0 C 7,2 C 5,0 C 96 % 1015,8 hPa 0,0 l/m 0 min 0 min 0 W/m 0,0 km/h (0 Bft) 97,87 %
24.12.2022 20:52 8,0 C 7,2 C 5,0 C 96 % 1015,8 hPa 0,0 l/m 0 min 0 min 0 W/m 0,0 km/h (0 Bft) 95,74 %
24.12.2022 20:54 8,0 C 7,2 C 5,0 C 96 % 1015,7 hPa 0,0 l/m 0 min 0 min 0 W/m 0,0 km/h (0 Bft) 100,00 %
24.12.2022 20:56 8,0 C 7,2 C 5,0 C 96 % 1015,7 hPa 0,0 l/m 0 min 0 min 0 W/m 0,0 km/h (0 Bft) 100,00 %
24.12.2022 20:58 8,1 C 7,2 C 5,0 C 96 % 1015,7 hPa 0,0 l/m 0 min 0 min 0 W/m 0,0 km/h (0 Bft) 100,00 %
24.12.2022 21:00 8,1 C 7,2 C 5,0 C 96 % 1015,6 hPa 0,0 l/m 0 min 0 min 0 W/m 0,0 km/h (0 Bft) 100,00 %
24.12.2022 21:02 8,1 C 7,2 C 5,0 C 96 % 1015,7 hPa 0,0 l/m 0 min 0 min 0 W/m 6,4 km/h (2 Bft) 97,87 %
24.12.2022 21:04 8,1 C 7,2 C 5,0 C 96 % 1015,7 hPa 0,0 l/m 0 min 0 min 0 W/m 3,2 km/h (1 Bft) 97,87 %
24.12.2022 21:06 8,1 C 7,2 C 5,0 C 96 % 1015,7 hPa 0,0 l/m 0 min 0 min 0 W/m 6,4 km/h (2 Bft) 100,00 %
24.12.2022 21:08 8,1 C 7,2 C 5,0 C 96 % 1015,8 hPa 0,0 l/m 0 min 0 min 0 W/m 3,2 km/h (1 Bft) 100,00 %
24.12.2022 21:10 8,1 C 7,2 C 5,0 C 96 % 1015,8 hPa 0,0 l/m 0 min 0 min 0 W/m 3,2 km/h (1 Bft) 100,00 %
24.12.2022 21:12 8,1 C 7,2 C 5,0 C 96 % 1015,8 hPa 0,0 l/m 0 min 0 min 0 W/m 6,4 km/h (2 Bft) 100,00 %
24.12.2022 21:14 8,1 C 7,2 C 5,0 C 96 % 1015,9 hPa 0,0 l/m 0 min 0 min 0 W/m 6,4 km/h (2 Bft) 100,00 %
24.12.2022 21:16 8,1 C 7,2 C 5,0 C 96 % 1015,9 hPa 0,0 l/m 0 min 0 min 0 W/m 0,0 km/h (0 Bft) 97,87 %
24.12.2022 21:18 8,1 C 7,2 C 5,0 C 96 % 1015,9 hPa 0,0 l/m 0 min 0 min 0 W/m 0,0 km/h (0 Bft) 93,62 %
24.12.2022 21:20 8,1 C 7,2 C 5,0 C 96 % 1015,9 hPa 0,0 l/m 0 min 0 min 0 W/m 0,0 km/h (0 Bft) 100,00 %
24.12.2022 21:22 8,1 C 7,2 C 5,0 C 96 % 1015,9 hPa 0,0 l/m 0 min 0 min 0 W/m 0,0 km/h (0 Bft) 100,00 %
24.12.2022 21:24 8,1 C 7,2 C 5,0 C 96 % 1015,9 hPa 0,0 l/m 0 min 0 min 0 W/m 0,0 km/h (0 Bft) 97,87 %
24.12.2022 21:26 8,1 C 7,2 C 5,0 C 96 % 1015,9 hPa 0,0 l/m 0 min 0 min 0 W/m 6,4 km/h (2 Bft) 97,87 %
24.12.2022 21:28 8,1 C 7,2 C 5,0 C 96 % 1016,0 hPa 0,0 l/m 0 min 0 min 0 W/m 6,4 km/h (2 Bft) 97,87 %
24.12.2022 21:30 8,1 C 7,2 C 5,0 C 96 % 1016,0 hPa 0,0 l/m 0 min 0 min 0 W/m 3,2 km/h (1 Bft) 100,00 %
24.12.2022 21:32 8,1 C 7,2 C 5,0 C 96 % 1015,9 hPa 0,0 l/m 0 min 0 min 0 W/m 3,2 km/h (1 Bft) 97,83 %
24.12.2022 21:34 8,1 C 7,2 C 5,0 C 96 % 1015,9 hPa 0,0 l/m 0 min 0 min 0 W/m 3,2 km/h (1 Bft) 95,74 %
24.12.2022 21:36 8,1 C 7,2 C 5,0 C 96 % 1015,9 hPa 0,0 l/m 0 min 0 min 0 W/m 3,2 km/h (1 Bft) 95,74 %
24.12.2022 21:38 8,1 C 7,2 C 5,0 C 96 % 1015,9 hPa 0,0 l/m 0 min 0 min 0 W/m 3,2 km/h (1 Bft) 97,87 %
24.12.2022 21:40 8,1 C 7,2 C 5,0 C 96 % 1015,9 hPa 0,0 l/m 0 min 0 min 0 W/m 3,2 km/h (1 Bft) 97,87 %
24.12.2022 21:42 8,1 C 7,2 C 5,0 C 96 % 1016,0 hPa 0,0 l/m 0 min 0 min 0 W/m 6,4 km/h (2 Bft) 95,74 %
24.12.2022 21:44 8,1 C 7,2 C 5,0 C 96 % 1015,9 hPa 0,0 l/m 0 min 0 min 0 W/m 3,2 km/h (1 Bft) 97,87 %
24.12.2022 21:46 8,1 C 7,2 C 5,0 C 96 % 1015,9 hPa 0,0 l/m 0 min 0 min 0 W/m 6,4 km/h (2 Bft) 95,65 %
24.12.2022 21:48 8,1 C 7,2 C 5,0 C 96 % 1015,9 hPa 0,0 l/m 0 min 0 min 0 W/m 3,2 km/h (1 Bft) 97,87 %
24.12.2022 21:50 8,1 C 7,2 C 5,0 C 96 % 1015,9 hPa 0,0 l/m 0 min 0 min 0 W/m 0,0 km/h (0 Bft) 97,87 %
24.12.2022 21:52 8,1 C 7,2 C 5,0 C 96 % 1016,0 hPa 0,0 l/m 0 min 0 min 0 W/m 3,2 km/h (1 Bft) 97,87 %
24.12.2022 21:54 8,1 C 7,2 C 5,0 C 96 % 1016,0 hPa 0,0 l/m 0 min 0 min 0 W/m 9,7 km/h (2 Bft) 97,87 %
24.12.2022 21:56 8,1 C 7,2 C 5,0 C 96 % 1016,0 hPa 0,0 l/m 0 min 0 min 0 W/m 3,2 km/h (1 Bft) 97,87 %
24.12.2022 21:58 8,1 C 7,2 C 5,0 C 96 % 1016,0 hPa 0,0 l/m 0 min 0 min 0 W/m 3,2 km/h (1 Bft) 97,83 %
24.12.2022 22:00 8,1 C 7,2 C 5,0 C 96 % 1015,9 hPa 0,0 l/m 0 min 0 min 0 W/m 6,4 km/h (2 Bft) 97,87 %
24.12.2022 22:02 8,1 C 7,2 C 5,0 C 96 % 1016,1 hPa 0,0 l/m 0 min 0 min 0 W/m 6,4 km/h (2 Bft) 95,74 %
24.12.2022 22:04 8,1 C 7,2 C 5,0 C 96 % 1016,2 hPa 0,0 l/m 0 min 0 min 0 W/m 6,4 km/h (2 Bft) 93,62 %
24.12.2022 22:06 8,1 C 7,2 C 5,0 C 96 % 1016,2 hPa 0,0 l/m 0 min 0 min 0 W/m 3,2 km/h (1 Bft) 100,00 %
24.12.2022 22:08 8,1 C 7,2 C 5,0 C 96 % 1016,2 hPa 0,0 l/m 0 min 0 min 0 W/m 6,4 km/h (2 Bft) 97,87 %
24.12.2022 22:10 8,1 C 7,2 C 5,0 C 96 % 1016,3 hPa 0,0 l/m 0 min 0 min 0 W/m 6,4 km/h (2 Bft) 97,83 %
24.12.2022 22:12 8,1 C 7,2 C 5,0 C 96 % 1016,4 hPa 0,0 l/m 0 min 0 min 0 W/m 6,4 km/h (2 Bft) 94,87 %
24.12.2022 22:14 8,0 C 7,2 C 5,0 C 96 % 1016,4 hPa 0,0 l/m 0 min 0 min 0 W/m 3,2 km/h (1 Bft) 97,87 %
24.12.2022 22:16 8,1 C 7,2 C 5,0 C 96 % 1016,4 hPa 0,0 l/m 0 min 0 min 0 W/m 3,2 km/h (1 Bft) 97,87 %
24.12.2022 22:18 8,1 C 7,2 C 5,0 C 96 % 1016,4 hPa 0,0 l/m 0 min 0 min 0 W/m 3,2 km/h (1 Bft) 97,87 %
24.12.2022 22:20 8,1 C 7,2 C 5,0 C 96 % 1016,3 hPa 0,0 l/m 0 min 0 min 0 W/m 3,2 km/h (1 Bft) 98,18 %
24.12.2022 22:22 8,1 C 7,2 C 5,0 C 97 % 1016,4 hPa 0,0 l/m 0 min 0 min 0 W/m 6,4 km/h (2 Bft) 95,74 %
24.12.2022 22:24 8,1 C 7,2 C 5,0 C 97 % 1016,4 hPa 0,0 l/m 0 min 0 min 0 W/m 6,4 km/h (2 Bft) 97,83 %
24.12.2022 22:26 8,1 C 7,2 C 5,0 C 97 % 1016,3 hPa 0,0 l/m 0 min 0 min 0 W/m 3,2 km/h (1 Bft) 95,74 %
24.12.2022 22:28 8,1 C 7,8 C 5,0 C 97 % 1016,3 hPa 0,0 l/m 0 min 0 min 0 W/m 3,2 km/h (1 Bft) 97,87 %
24.12.2022 22:30 8,1 C 7,2 C 5,0 C 97 % 1016,2 hPa 0,0 l/m 0 min 0 min 0 W/m 3,2 km/h (1 Bft) 95,74 %
24.12.2022 22:32 8,1 C 7,2 C 5,0 C 97 % 1016,2 hPa 0,0 l/m 0 min 0 min 0 W/m 6,4 km/h (2 Bft) 95,74 %
24.12.2022 22:34 8,1 C 7,2 C 5,0 C 97 % 1016,3 hPa 0,0 l/m 0 min 0 min 0 W/m 6,4 km/h (2 Bft) 95,74 %
24.12.2022 22:36 8,1 C 7,2 C 5,0 C 97 % 1016,2 hPa 0,0 l/m 0 min 0 min 0 W/m 3,2 km/h (1 Bft) 95,65 %
24.12.2022 22:38 8,1 C 7,2 C 5,0 C 97 % 1016,3 hPa 0,0 l/m 0 min 0 min 0 W/m 6,4 km/h (2 Bft) 95,74 %
24.12.2022 22:40 8,1 C 7,2 C 5,0 C 97 % 1016,2 hPa 0,0 l/m 0 min 0 min 0 W/m 0,0 km/h (0 Bft) 93,62 %
24.12.2022 22:42 8,1 C 7,2 C 5,0 C 97 % 1016,2 hPa 0,0 l/m 0 min 0 min 0 W/m 0,0 km/h (0 Bft) 95,74 %
24.12.2022 22:44 8,1 C 7,2 C 5,0 C 97 % 1016,2 hPa 0,0 l/m 0 min 0 min 0 W/m 3,2 km/h (1 Bft) 97,87 %
24.12.2022 22:46 8,1 C 7,2 C 5,0 C 97 % 1016,1 hPa 0,0 l/m 0 min 0 min 0 W/m 6,4 km/h (2 Bft) 97,87 %
24.12.2022 22:48 8,1 C 7,2 C 5,0 C 97 % 1016,1 hPa 0,0 l/m 0 min 0 min 0 W/m 6,4 km/h (2 Bft) 91,49 %
24.12.2022 22:50 8,0 C 7,2 C 5,0 C 97 % 1016,0 hPa 0,0 l/m 0 min 0 min 0 W/m 6,4 km/h (2 Bft) 54,55 %
24.12.2022 22:52 8,0 C 7,2 C 5,0 C 97 % 1016,0 hPa 0,0 l/m 0 min 0 min 0 W/m 6,4 km/h (2 Bft) 97,87 %
24.12.2022 22:54 8,0 C 7,2 C 5,0 C 96 % 1016,0 hPa 0,0 l/m 0 min 0 min 0 W/m 9,7 km/h (2 Bft) 97,87 %
24.12.2022 22:56 7,9 C 7,2 C 5,0 C 96 % 1015,9 hPa 0,0 l/m 0 min 0 min 0 W/m 12,9 km/h (3 Bft) 97,87 %
24.12.2022 22:58 7,9 C 7,2 C 5,0 C 96 % 1015,9 hPa 0,0 l/m 0 min 0 min 0 W/m 12,9 km/h (3 Bft) 95,74 %
24.12.2022 23:00 7,9 C 7,2 C 5,0 C 96 % 1015,8 hPa 0,0 l/m 0 min 0 min 0 W/m 6,4 km/h (2 Bft) 97,87 %
24.12.2022 23:02 7,9 C 7,2 C 5,0 C 96 % 1015,8 hPa 0,0 l/m 0 min 0 min 0 W/m 3,2 km/h (1 Bft) 95,65 %
24.12.2022 23:04 7,9 C 7,2 C 5,0 C 96 % 1015,8 hPa 0,0 l/m 0 min 0 min 0 W/m 6,4 km/h (2 Bft) 97,87 %
24.12.2022 23:06 7,9 C 7,2 C 5,0 C 96 % 1015,8 hPa 0,0 l/m 0 min 0 min 0 W/m 12,9 km/h (3 Bft) 97,92 %
24.12.2022 23:08 7,9 C 7,2 C 5,0 C 96 % 1015,7 hPa 0,0 l/m 0 min 0 min 0 W/m 12,9 km/h (3 Bft) 97,87 %
24.12.2022 23:10 7,8 C 7,2 C 5,0 C 96 % 1015,7 hPa 0,0 l/m 0 min 0 min 0 W/m 6,4 km/h (2 Bft) 97,87 %
24.12.2022 23:12 7,8 C 7,2 C 5,0 C 96 % 1015,6 hPa 0,0 l/m 0 min 0 min 0 W/m 12,9 km/h (3 Bft) 95,74 %
24.12.2022 23:14 7,8 C 7,2 C 5,0 C 96 % 1015,6 hPa 0,0 l/m 0 min 0 min 0 W/m 6,4 km/h (2 Bft) 95,65 %
24.12.2022 23:16 7,8 C 7,2 C 5,0 C 96 % 1015,5 hPa 0,0 l/m 0 min 0 min 0 W/m 6,4 km/h (2 Bft) 97,87 %
24.12.2022 23:18 7,8 C 7,2 C 5,0 C 96 % 1015,5 hPa 0,0 l/m 0 min 0 min 0 W/m 12,9 km/h (3 Bft) 93,62 %
24.12.2022 23:20 7,8 C 7,2 C 5,0 C 96 % 1015,5 hPa 0,0 l/m 0 min 0 min 0 W/m 6,4 km/h (2 Bft) 97,14 %
24.12.2022 23:22 7,8 C 7,2 C 5,0 C 96 % 1015,5 hPa 0,0 l/m 0 min 0 min 0 W/m 6,4 km/h (2 Bft) 98,31 %
24.12.2022 23:24 7,8 C 7,2 C 5,0 C 96 % 1015,5 hPa 0,0 l/m 0 min 0 min 0 W/m 9,7 km/h (2 Bft) 97,87 %
24.12.2022 23:26 7,8 C 7,2 C 5,0 C 96 % 1015,5 hPa 0,0 l/m 0 min 0 min 0 W/m 16,1 km/h (3 Bft) 97,87 %
24.12.2022 23:28 7,8 C 7,2 C 5,0 C 96 % 1015,6 hPa 0,0 l/m 0 min 0 min 0 W/m 6,4 km/h (2 Bft) 100,00 %
24.12.2022 23:30 7,7 C 7,2 C 5,0 C 96 % 1015,6 hPa 0,0 l/m 0 min 0 min 0 W/m 6,4 km/h (2 Bft) 93,62 %
24.12.2022 23:32 7,7 C 6,7 C 5,0 C 96 % 1015,5 hPa 0,0 l/m 0 min 0 min 0 W/m 3,2 km/h (1 Bft) 95,74 %
24.12.2022 23:34 7,7 C 6,7 C 5,0 C 96 % 1015,5 hPa 0,0 l/m 0 min 0 min 0 W/m 6,4 km/h (2 Bft) 97,14 %
24.12.2022 23:36 7,7 C 6,7 C 5,0 C 96 % 1015,5 hPa 0,0 l/m 0 min 0 min 0 W/m 6,4 km/h (2 Bft) 100,00 %
24.12.2022 23:38 7,7 C 6,7 C 5,0 C 96 % 1015,5 hPa 0,0 l/m 0 min 0 min 0 W/m 6,4 km/h (2 Bft) 95,74 %
24.12.2022 23:40 7,7 C 6,7 C 5,0 C 96 % 1015,5 hPa 0,0 l/m 0 min 0 min 0 W/m 6,4 km/h (2 Bft) 100,00 %
24.12.2022 23:42 7,6 C 6,7 C 4,4 C 96 % 1015,4 hPa 0,0 l/m 0 min 0 min 0 W/m 6,4 km/h (2 Bft) 100,00 %
24.12.2022 23:44 7,6 C 6,7 C 4,4 C 96 % 1015,5 hPa 0,0 l/m 0 min 0 min 0 W/m 6,4 km/h (2 Bft) 95,92 %
24.12.2022 23:46 7,6 C 6,7 C 4,4 C 96 % 1015,5 hPa 0,0 l/m 0 min 0 min 0 W/m 6,4 km/h (2 Bft) 97,87 %
24.12.2022 23:48 7,6 C 6,7 C 4,4 C 96 % 1015,5 hPa 0,0 l/m 0 min 0 min 0 W/m 6,4 km/h (2 Bft) 97,87 %
24.12.2022 23:50 7,6 C 6,7 C 4,4 C 96 % 1015,5 hPa 0,0 l/m 0 min 0 min 0 W/m 3,2 km/h (1 Bft) 97,87 %
24.12.2022 23:52 7,6 C 6,7 C 4,4 C 96 % 1015,5 hPa 0,0 l/m 0 min 0 min 0 W/m 6,4 km/h (2 Bft) 100,00 %
24.12.2022 23:54 7,5 C 6,7 C 4,4 C 96 % 1015,5 hPa 0,0 l/m 0 min 0 min 0 W/m 6,4 km/h (2 Bft) 93,62 %
24.12.2022 23:56 7,5 C 6,7 C 4,4 C 96 % 1015,5 hPa 0,0 l/m 0 min 0 min 0 W/m 3,2 km/h (1 Bft) 91,30 %
24.12.2022 23:58 7,5 C 6,7 C 4,4 C 96 % 1015,4 hPa 0,0 l/m 0 min 0 min 0 W/m 6,4 km/h (2 Bft) 97,87 %
_ Min-Zeit 23:54 17:34 17:34 14:42 00:02 - - - - 15:32 22:50
Minimum _ 7,5 C 6,7 C 3,3 C 83 % 1006,3 hPa - - - - 0,0 km/h (0 Bft) 54,55 %
_ Max-Zeit 14:08 13:14 14:04 22:22 22:12 00:00 12:28 05:28 13:08 01:28 00:58
Maximum _ 11,9 C 13,3 C 8,9 C 97 % 1016,4 hPa 0,0 l/m 2 min 2 min 353 W/m 41,8 km/h
SO (6 Bft)
100,00 %
Durchschnitt _ 9,6 C 9,0 C 6,3 C 92 % 1012,4 hPa #0,0 l/m #1:40 h #18 min. 78 W/m 11,6 km/h (2 Bft) 96,96 %
© 2022 W. Hausmann